GEFSCGP_500_meanwind_006.txt.gz
Wind_Speed
13 12 11 11 11 12 14 16 19 21 23 25 28 29 30 31 33 34 36 38 39 41 42 43 44 46 48 49 50 53 54 56 57 58 58 58 60 61 63 64 64 64 64 64
10 11 11 12 12 13 15 17 19 21 23 26 28 30 31 34 37 40 43 44 45 46 47 47 49 52 53 54 56 59 61 63 64 64 65 65 65 65 66 67 68 68 68 67
11 11 11 13 16 18 19 20 21 22 23 27 31 33 36 39 43 46 48 50 52 53 54 56 58 60 62 62 63 64 67 68 69 70 72 72 71 71 72 72 72 73 74 74
9 11 13 15 17 18 19 20 22 24 26 30 35 39 42 44 47 51 53 56 58 61 63 66 67 68 69 69 70 71 72 73 74 75 77 78 77 76 76 77 76 77 78 78
10 12 15 16 17 17 19 22 25 28 31 34 37 42 46 48 51 53 56 59 63 66 70 73 73 74 75 75 75 76 76 77 79 79 80 80 79 78 78 79 78 77 77 79
12 12 13 15 17 19 22 25 28 33 37 39 43 48 53 56 58 61 63 65 68 71 74 76 77 79 80 81 81 80 80 81 82 81 80 78 74 72 71 71 73 73 74 76
13 13 14 16 19 22 25 28 33 39 42 45 49 54 59 63 66 69 70 70 72 73 75 77 79 81 82 83 84 84 83 81 79 74 68 62 58 56 55 56 58 61 64 68
15 16 17 19 21 25 28 33 38 43 47 50 55 60 65 69 72 73 73 73 72 73 76 78 80 82 83 83 84 83 80 74 66 58 50 45 43 44 46 49 52 56 59 62
17 17 19 22 25 28 32 38 43 48 53 58 61 65 69 73 75 74 72 70 70 73 76 78 80 80 80 79 77 73 65 55 47 40 36 36 39 42 44 45 47 49 52 55
18 21 23 26 28 32 37 44 49 54 58 62 65 69 72 75 73 70 68 67 69 72 73 73 71 67 63 60 55 48 41 35 31 31 32 34 37 38 37 37 39 42 44 44
22 24 28 30 31 36 42 48 53 56 59 63 68 72 74 73 72 69 67 66 66 64 62 59 55 53 51 46 40 35 31 29 29 29 30 32 34 34 35 36 38 40 40 38
24 27 31 34 36 40 46 51 55 58 61 65 70 74 74 72 68 65 63 61 59 58 55 51 51 48 44 38 33 29 27 26 26 26 28 30 32 33 33 34 36 37 35 31
27 30 33 36 40 44 48 53 56 60 63 68 71 71 73 68 65 61 57 56 57 52 49 49 47 43 39 35 31 28 27 26 26 27 28 30 32 33 32 31 32 32 30 26
28 30 33 38 42 46 50 55 58 62 66 70 72 74 72 69 63 56 52 52 51 48 47 46 43 40 38 35 31 30 29 29 29 30 31 32 32 33 32 30 29 28 26 24
29 31 34 39 44 49 52 56 60 64 69 71 73 72 70 65 58 53 51 50 48 47 46 44 42 40 38 36 33 32 31 32 33 34 34 34 33 33 32 30 28 25 23 22
31 34 36 41 47 51 54 58 63 66 69 72 73 70 68 60 53 49 48 47 46 46 45 44 43 42 41 39 36 35 34 35 36 37 37 37 35 34 33 32 29 25 22 21
33 36 40 45 50 55 56 61 65 68 71 75 73 71 64 55 50 47 47 47 45 44 45 45 45 45 44 42 41 39 38 38 39 40 41 41 39 37 34 33 31 28 24 21
35 39 44 48 53 55 59 62 66 70 71 72 69 64 57 52 49 47 48 48 45 45 46 47 48 48 48 47 46 45 44 44 43 43 43 43 42 40 37 35 33 31 28 25
37 43 48 52 55 57 61 65 68 72 72 71 65 57 52 49 48 47 48 46 44 45 48 50 51 52 52 52 51 51 50 49 48 47 46 45 42 40 38 36 35 33 31 29
41 46 50 53 56 59 63 66 70 73 70 66 58 52 49 47 45 44 43 42 44 47 50 53 55 55 55 55 55 55 54 53 51 50 48 46 43 40 38 36 35 35 34 32
44 49 52 55 57 59 65 68 71 71 71 65 54 47 46 45 44 45 44 45 47 51 54 56 57 57 58 58 57 57 57 56 55 53 51 48 45 43 41 38 36 35 35 35
47 51 54 57 59 61 65 68 71 71 69 58 47 44 44 44 46 47 49 50 52 54 56 57 58 59 61 61 61 61 60 58 57 56 54 51 49 47 45 43 40 38 37 37
49 52 55 57 58 62 66 69 72 72 65 52 43 42 43 46 49 51 53 54 56 57 58 60 61 62 62 60 59 56 54 52 50 49 47 47 46 46 47 47 46 44 43 41
51 54 56 57 60 63 67 69 72 70 62 49 42 42 45 48 51 54 56 58 58 60 62 62 59 55 52 51 51 51 50 50 48 45 43 40 39 38 39 42 45 47 48 47
53 56 56 57 60 63 66 69 71 69 61 50 43 43 46 50 54 56 58 59 61 62 58 52 49 49 50 51 51 51 52 52 51 48 45 41 38 36 34 33 34 38 44 50
53 55 56 57 61 63 65 69 71 69 60 50 45 45 48 52 56 58 59 61 60 54 47 46 47 48 49 50 51 52 52 52 51 49 46 42 38 36 35 34 32 32 32 36

GEFSCGP_500_meanwind_012.txt.gz
Wind_Speed
7 7 8 8 9 11 12 13 14 16 19 23 28 33 37 41 44 48 51 55 59 62 65 68 71 74 76 77 77 76 75 75 75 76 77 76 75 74 73 72 72 72 72 72
6 6 7 9 10 12 14 15 17 19 22 27 31 36 41 44 48 52 56 60 63 67 71 74 78 81 83 85 86 85 83 81 79 79 80 81 81 81 80 79 78 77 77 77
7 8 10 11 13 13 15 17 21 25 27 30 36 42 46 50 54 58 61 64 68 72 77 81 84 86 88 89 90 91 90 89 86 84 84 84 85 86 86 86 86 85 84 83
10 11 12 13 14 16 18 21 24 29 32 36 42 48 51 55 59 62 65 69 74 79 83 85 87 87 87 87 87 85 84 83 83 83 84 84 85 85 87 87 87 88 89 89
13 14 14 14 15 18 21 25 28 32 37 41 46 52 56 59 63 67 71 75 79 82 84 85 84 83 81 79 75 71 68 66 65 64 65 66 68 71 73 75 77 79 81 84
16 17 17 17 19 21 25 29 33 36 40 45 50 55 60 63 68 72 76 78 80 81 81 80 78 74 69 63 59 57 55 54 52 51 50 48 46 45 44 46 49 54 59 64
18 18 19 20 22 25 29 32 36 40 44 48 53 58 63 68 73 76 77 79 79 77 75 72 67 60 55 53 51 50 49 48 47 45 43 41 38 34 30 27 26 29 33 37
20 20 21 22 25 30 33 36 38 42 46 51 56 60 66 72 74 77 78 77 74 71 68 63 58 53 50 48 47 47 47 46 45 42 40 39 36 32 27 22 20 20 22 26
22 23 24 26 28 32 35 38 40 45 51 56 59 63 70 73 75 77 76 73 68 64 61 57 53 49 48 46 46 46 47 46 45 43 40 37 35 32 28 25 22 21 22 23
23 25 25 27 28 32 36 39 45 50 55 59 62 68 72 74 76 76 73 68 62 58 55 53 50 48 46 45 46 47 48 48 46 44 41 38 35 32 29 26 24 24 24 25
24 25 25 27 30 34 38 42 48 53 57 62 67 70 73 75 76 75 70 63 57 53 52 51 50 49 47 47 48 49 50 50 48 46 44 41 38 35 33 31 29 28 28 29
24 25 27 28 31 34 39 45 51 55 59 63 67 72 74 76 75 72 66 58 52 51 52 52 51 50 50 50 52 53 53 53 52 50 48 45 42 40 38 37 35 34 33 33
25 26 29 31 34 37 43 49 53 57 60 64 68 71 74 75 73 68 61 54 50 51 52 53 53 53 54 55 56 57 57 56 56 55 53 51 48 46 44 42 41 40 38 37
25 27 29 32 36 40 45 51 54 58 62 66 68 71 72 74 71 64 57 52 50 52 54 56 57 57 58 58 59 60 61 60 59 58 57 55 53 51 49 47 45 44 42 41
27 28 30 33 37 41 47 52 56 60 65 67 69 72 74 74 70 63 56 52 52 55 57 59 61 62 63 63 63 62 60 59 58 57 56 55 54 53 51 49 47 46 44 43
29 30 32 35 39 42 48 54 59 63 66 68 70 72 75 73 68 61 55 53 54 57 61 63 64 65 65 63 59 57 54 53 52 52 51 51 50 48 47 47 47 46 45 43
30 32 35 37 41 44 50 56 61 65 67 69 70 73 75 73 67 61 55 54 56 60 63 66 66 64 60 58 56 54 54 54 54 53 52 51 50 47 45 42 42 43 44 43
31 33 36 39 43 48 53 58 63 66 67 69 72 74 75 72 65 58 54 55 57 62 65 65 62 58 55 54 53 54 55 56 57 57 56 54 51 48 45 41 39 39 40 41
30 32 36 41 45 50 56 61 66 68 67 70 72 74 73 69 62 56 55 56 60 63 64 61 57 54 53 53 53 54 56 57 59 59 58 55 52 48 44 39 36 34 35 37
31 32 37 42 48 54 58 63 67 68 68 71 72 73 72 67 61 57 56 58 61 62 59 55 52 51 51 52 54 56 57 58 59 59 58 56 53 49 45 40 35 31 30 30
35 36 39 44 50 56 61 66 68 67 69 70 71 72 70 63 58 57 57 59 61 59 55 52 50 51 52 54 56 58 59 60 61 61 59 57 53 50 46 43 37 32 28 26
37 39 42 47 53 58 63 66 67 67 68 69 71 71 66 60 56 56 58 59 58 54 51 49 49 51 53 55 58 60 61 62 63 62 60 56 53 50 47 44 40 35 30 27
37 39 42 48 53 59 64 67 67 67 67 68 70 69 63 57 54 57 58 58 55 51 48 48 49 52 55 57 59 61 62 63 64 63 60 56 53 51 48 45 42 38 33 29
39 39 43 49 56 61 65 68 67 66 66 68 69 66 60 55 55 57 58 55 51 48 46 47 50 53 55 57 59 62 64 65 64 62 60 58 55 52 50 47 43 39 35 30
40 42 45 50 57 62 66 67 67 65 66 68 67 63 57 55 56 57 56 53 48 45 45 47 51 53 55 57 60 63 65 65 62 61 60 60 59 57 53 49 45 40 35 32
40 43 47 51 58 63 66 67 66 64 65 66 66 61 57 55 56 56 54 50 45 43 45 48 51 53 54 56 60 64 65 64 61 59 60 62 62 61 57 52 45 41 36 31

GEFSCGP_500_meanwind_018.txt.gz
Wind_Speed
4 6 7 9 10 11 13 14 16 18 22 26 29 32 35 39 44 49 54 60 64 69 72 76 78 81 82 84 86 86 84 80 74 69 65 62 57 53 50 50 52 54 58 65
7 9 10 12 14 15 16 17 19 21 25 29 33 36 37 43 48 53 58 64 68 72 75 77 79 81 83 85 85 82 75 68 64 61 58 53 49 46 44 45 46 47 47 51
10 12 13 15 15 16 17 19 22 25 28 31 37 39 41 46 51 57 63 68 72 75 78 79 80 82 83 82 78 71 64 61 58 55 52 49 47 46 46 45 45 45 45 45
12 14 15 16 17 18 19 22 25 28 32 33 38 43 44 50 57 63 68 72 74 77 78 80 81 82 80 76 70 63 60 58 56 54 52 50 49 47 46 45 44 43 43 43
14 15 16 17 18 20 22 25 28 31 33 35 39 46 50 56 62 67 71 74 76 77 79 81 81 79 75 69 63 59 58 58 57 56 55 53 52 51 49 48 46 44 42 41
14 15 16 17 19 21 24 27 30 33 37 39 43 49 55 61 66 70 73 75 76 78 79 80 79 74 69 64 60 59 60 60 60 60 59 57 55 54 53 51 49 46 43 40
16 17 17 18 20 22 25 29 33 38 41 43 46 52 59 64 68 71 74 75 76 78 79 78 74 69 64 61 61 62 63 64 64 63 61 59 58 57 55 54 51 48 44 40
18 19 19 20 21 23 26 28 32 37 41 45 49 55 62 67 70 72 75 75 77 79 78 74 70 66 63 62 63 65 65 64 63 60 58 57 55 54 54 54 53 50 47 42
19 20 20 20 22 24 27 31 34 38 43 48 53 58 64 69 72 74 75 76 77 77 75 71 67 64 64 65 66 65 63 60 58 56 54 52 51 51 50 50 50 49 48 45
19 20 20 21 22 24 28 32 36 39 45 51 57 62 67 70 73 75 75 76 77 75 71 68 66 65 66 66 64 61 58 56 53 52 51 50 50 49 49 48 47 45 44 44
20 21 21 22 23 26 30 33 36 40 45 52 60 65 68 72 74 75 76 76 75 72 68 66 66 67 66 63 60 57 55 53 52 51 51 51 50 50 49 48 46 44 42 41
20 21 22 23 24 27 29 32 37 43 49 54 62 67 71 73 74 75 75 75 72 69 67 67 67 66 63 59 56 54 53 52 53 53 53 52 52 51 50 48 46 43 41 39
21 23 24 24 24 27 31 35 39 45 51 57 64 68 73 74 74 74 74 73 70 68 67 67 66 63 59 55 54 53 53 54 55 55 55 54 53 51 49 47 44 41 38 37
22 23 25 26 28 31 34 37 41 46 53 59 65 70 73 74 73 74 74 72 69 67 67 66 63 59 55 53 53 53 54 56 57 56 55 54 52 50 48 46 43 40 36 34
24 24 23 25 26 29 34 37 42 47 55 62 68 72 74 74 74 74 73 70 68 66 65 64 59 55 53 52 52 53 55 57 58 57 54 52 51 50 49 47 44 40 36 33
25 25 25 25 28 30 34 38 44 50 57 65 70 74 75 73 73 74 71 69 67 65 64 60 56 53 52 52 52 54 56 59 60 57 53 51 51 51 51 50 47 42 37 33
26 28 30 31 33 33 37 43 48 53 60 66 72 74 75 73 73 73 70 68 65 64 62 57 53 52 52 52 53 55 59 61 61 58 53 52 52 53 53 53 51 47 40 34
28 30 33 35 37 38 41 44 50 55 61 68 72 75 73 72 72 71 68 65 64 62 58 54 52 51 52 53 54 57 61 63 61 58 54 53 54 55 55 56 55 52 46 37
29 32 35 37 39 39 42 47 52 57 63 69 73 73 72 71 71 68 66 65 63 60 55 52 51 52 53 53 55 58 62 63 61 58 56 55 55 56 57 58 57 55 48 38
30 32 35 37 39 42 45 49 53 59 65 69 72 71 70 70 69 67 65 63 61 57 53 51 52 52 53 54 56 60 63 62 60 58 57 57 58 58 59 60 61 57 48 37
31 34 36 38 39 42 46 50 55 59 65 69 71 69 68 68 67 65 64 62 59 54 51 51 52 53 54 55 57 60 62 61 60 58 57 58 60 61 62 64 63 56 45 33
34 37 39 40 42 45 47 50 54 59 65 69 69 67 67 67 65 64 62 60 56 52 50 50 52 53 55 56 58 60 61 60 59 58 58 60 61 63 65 67 64 55 41 29
34 37 38 40 41 43 45 49 54 59 65 68 68 66 66 65 64 62 60 58 54 50 49 50 52 53 55 56 58 59 60 59 59 58 59 61 62 64 67 69 66 54 39 26
36 37 37 39 41 43 46 50 55 59 65 68 66 65 65 64 62 60 58 56 52 48 47 49 51 53 54 55 57 59 59 59 59 59 59 61 62 63 67 71 69 57 41 27
39 40 38 38 40 42 46 51 55 59 64 67 65 64 63 62 60 59 57 54 49 46 46 48 50 52 53 54 56 58 59 59 59 59 60 61 62 63 66 71 72 64 47 33
40 39 38 39 41 43 47 51 55 59 64 66 64 62 62 61 59 57 55 52 48 45 45 47 50 51 52 53 55 57 58 58 58 58 60 61 62 63 64 68 71 69 57 41

GEFSCGP_500_meanwind_024.txt.gz
Wind_Speed
9 11 12 14 15 16 18 18 19 21 24 26 29 30 31 36 40 44 49 54 60 66 70 73 76 78 80 81 83 84 84 83 80 77 74 71 68 67 65 64 63 62 61 60
11 13 14 15 17 17 18 20 20 20 23 27 30 31 32 37 42 47 53 59 64 69 73 76 79 80 82 83 84 84 83 81 78 75 72 69 66 64 62 60 59 58 58 58
13 14 15 17 18 18 19 21 23 25 25 27 32 33 34 40 46 51 58 63 68 73 78 79 81 81 82 83 83 82 81 78 75 70 66 63 60 57 55 53 52 52 51 52
15 16 17 18 18 19 20 21 22 25 27 29 32 36 38 45 50 57 62 67 72 77 79 80 81 81 82 82 82 80 77 73 68 65 63 60 58 56 54 53 51 50 49 48
16 17 18 18 19 20 21 22 24 26 29 30 32 38 44 50 55 60 65 70 75 79 79 79 81 82 82 81 79 77 71 67 65 63 62 60 59 58 57 55 53 50 48 47
18 19 19 20 21 21 23 24 24 27 32 36 40 44 47 53 59 64 70 73 76 77 78 80 81 81 81 80 77 71 67 64 63 62 62 61 61 59 57 55 51 48 46 45
18 19 19 20 21 22 23 26 30 34 36 38 40 43 49 56 62 67 71 74 76 78 80 80 81 80 79 77 72 67 65 64 63 63 62 62 62 60 58 53 49 46 44 43
18 18 19 20 22 23 25 27 30 33 35 37 41 46 53 58 63 67 72 76 78 79 79 80 80 79 77 73 69 65 64 64 64 63 63 62 62 59 55 51 48 46 45 43
18 19 20 21 23 24 26 27 29 32 36 40 45 49 54 59 64 69 73 76 77 78 79 79 79 78 75 70 66 65 65 65 64 63 63 62 60 56 52 49 47 46 45 44
18 18 20 21 22 24 26 29 31 34 39 44 47 52 56 60 65 71 74 75 76 78 79 78 78 76 72 68 65 65 65 65 65 63 62 61 58 55 52 50 48 47 46 45
18 18 19 21 22 24 26 29 31 35 39 45 50 54 57 62 67 72 75 76 77 78 78 77 77 74 69 66 65 65 66 65 64 62 61 59 57 54 53 52 50 48 47 46
19 19 19 20 22 25 27 31 34 36 40 44 48 55 58 64 69 73 75 76 77 77 76 77 75 71 66 64 64 65 66 65 63 61 59 58 57 56 55 55 53 52 50 48
20 21 22 22 23 24 27 30 34 37 40 44 49 55 60 65 70 74 75 75 76 76 76 76 73 68 64 63 64 65 65 64 62 60 58 58 58 58 58 57 56 55 54 52
21 22 23 26 28 30 32 33 35 38 42 45 49 55 61 66 71 73 74 75 76 76 75 74 70 65 63 63 65 65 65 63 60 59 58 59 60 61 60 60 59 59 58 55
22 22 23 25 27 28 31 33 35 38 42 46 50 56 61 66 71 74 75 75 76 75 74 72 68 63 62 63 65 65 64 61 59 58 59 61 62 62 62 62 63 62 60 56
27 25 25 24 25 27 30 33 36 39 43 47 52 57 62 67 71 74 75 75 75 74 73 70 65 61 61 63 64 64 63 60 58 58 60 62 63 63 64 64 66 66 61 53
32 32 31 30 30 31 33 37 40 41 44 49 54 58 63 68 72 74 74 74 74 73 71 68 63 60 60 63 64 64 62 60 58 59 61 63 64 65 66 68 70 68 59 46
36 37 37 36 36 35 38 39 42 44 45 50 55 59 64 69 72 73 73 73 73 71 70 66 61 58 60 62 64 63 61 59 58 59 62 64 65 66 67 70 72 68 56 41
38 41 42 42 43 41 40 42 45 47 47 51 56 60 65 69 73 73 72 72 71 70 68 64 59 57 59 62 63 62 60 58 57 59 62 64 66 67 68 71 73 68 55 40
38 41 44 45 46 46 45 46 46 48 50 54 57 61 65 69 71 72 71 70 70 69 67 62 58 57 59 61 61 61 59 58 58 60 63 65 67 68 69 72 74 69 57 42
39 43 46 48 48 46 49 48 48 48 51 54 57 61 64 68 71 71 70 69 68 67 65 61 57 56 58 59 60 60 59 58 58 60 63 65 67 68 69 71 74 71 61 46
41 45 49 53 55 53 53 51 49 49 50 53 57 60 64 68 70 70 68 68 67 66 64 60 56 55 57 58 59 59 58 58 58 60 62 64 66 68 68 69 71 71 66 52
41 45 49 52 54 55 55 52 50 49 50 53 57 60 63 67 69 68 67 67 66 65 63 59 55 54 56 57 57 57 57 57 58 59 60 62 65 67 68 68 69 70 69 61
40 44 48 52 55 56 55 53 50 49 50 53 56 59 63 67 68 67 66 66 65 64 62 58 54 53 54 56 56 56 56 57 57 57 58 60 63 66 68 68 68 69 69 67
43 46 49 52 55 57 56 54 51 50 50 53 56 59 62 66 67 66 65 64 64 63 61 57 53 52 53 54 54 54 55 55 55 56 57 59 61 64 67 68 68 68 69 68
42 45 49 52 56 59 58 56 53 50 51 53 56 58 61 64 66 65 64 63 62 61 60 56 52 50 51 52 53 53 53 54 54 54 56 57 59 61 64 66 68 68 67 66

GEFSCGP_500_meanwind_030.txt.gz
Wind_Speed
12 14 15 15 15 15 15 14 15 17 19 20 21 24 27 31 34 37 40 44 49 54 59 64 69 73 77 79 81 84 85 86 86 83 78 74 71 71 71 70 68 66 63 60
12 13 14 15 15 16 16 16 17 18 19 20 21 23 27 31 34 38 43 47 53 57 62 68 72 76 78 80 82 84 86 86 83 79 76 73 72 71 69 66 63 59 56 54
14 15 15 15 16 17 17 17 18 18 19 22 23 22 28 31 36 41 46 51 56 60 66 71 74 77 79 81 83 84 85 83 79 76 74 72 71 68 63 58 54 53 51 50
14 15 16 16 16 17 17 17 18 19 20 24 26 26 30 35 40 45 49 54 58 63 68 72 75 77 79 81 83 84 84 80 77 75 74 73 69 63 58 53 51 51 52 51
14 16 16 16 17 18 18 18 19 21 22 24 26 29 33 38 43 48 52 56 60 65 70 72 74 77 79 81 83 83 81 77 75 75 74 71 66 59 54 51 52 53 54 54
15 16 17 17 18 19 20 21 21 22 23 24 28 32 36 41 45 49 53 57 61 66 70 72 74 77 79 81 82 81 77 75 75 75 72 68 62 56 53 53 54 54 55 55
16 17 18 18 19 20 22 23 24 25 26 28 31 34 38 42 47 51 55 58 62 66 69 72 75 77 79 81 81 78 75 74 74 73 70 64 59 55 55 57 58 58 58 57
17 18 19 20 20 22 24 25 27 29 30 30 32 36 40 44 48 52 56 59 63 67 70 73 75 77 79 80 79 76 73 73 73 71 67 61 58 57 59 61 62 63 62 61
18 19 20 21 23 25 27 27 28 30 32 34 36 39 42 46 50 53 56 60 64 68 71 73 75 77 79 79 77 74 72 72 72 69 64 60 58 60 62 64 66 66 66 65
20 21 21 23 24 27 28 29 31 32 36 40 40 41 44 47 50 54 57 61 65 69 71 73 75 77 78 77 74 72 72 72 70 67 63 60 60 62 65 67 69 70 70 69
21 22 23 24 26 28 30 31 32 34 36 40 43 42 44 47 50 54 58 62 66 69 71 73 75 77 77 75 72 70 70 70 68 66 62 61 62 64 67 69 72 73 72 68
23 24 24 26 28 29 30 32 33 35 38 40 42 43 45 47 50 54 58 62 66 69 71 73 74 75 74 72 70 69 69 69 67 65 62 61 63 66 68 71 74 75 72 63
23 26 27 28 29 31 32 33 35 36 38 39 40 41 44 47 50 54 59 63 66 69 71 72 73 73 72 70 69 68 68 67 66 65 62 62 64 67 69 73 75 75 70 58
24 26 30 32 33 35 36 36 36 37 38 38 38 40 43 46 50 54 59 63 66 69 70 71 72 72 71 69 68 67 67 66 66 64 63 63 65 68 70 74 76 75 67 54
22 25 30 33 35 36 38 38 38 37 38 38 38 39 42 46 50 54 59 63 66 68 69 69 70 71 69 67 66 66 66 65 65 64 63 64 67 69 71 73 76 74 65 51
20 23 28 31 34 36 39 41 41 40 40 39 39 40 42 46 50 54 59 63 66 67 67 68 69 69 68 66 65 64 64 64 64 64 64 65 67 69 71 73 75 74 65 51
19 22 26 30 34 38 42 45 45 43 42 42 41 42 44 47 50 55 59 62 64 65 66 67 68 68 67 65 64 63 63 63 63 63 63 65 67 69 70 72 74 73 67 53
19 23 27 31 36 40 44 47 49 47 44 44 43 44 45 48 51 55 58 61 64 65 65 66 67 67 65 64 63 62 62 61 61 62 63 64 66 68 70 71 72 72 69 58
19 24 28 33 37 40 45 49 51 52 48 48 47 46 47 49 51 54 58 61 63 64 64 65 66 66 64 63 61 60 60 60 59 60 61 63 65 66 69 70 71 71 70 63
19 23 28 32 37 42 46 49 52 54 54 53 50 49 48 49 51 54 57 60 62 63 63 64 65 65 63 61 59 58 58 58 58 59 60 61 63 65 67 69 71 71 69 67
19 23 26 31 35 39 45 49 52 54 56 55 52 50 49 49 50 53 57 60 62 62 62 63 63 63 62 60 58 57 57 56 56 57 58 59 61 64 66 68 70 70 69 67
22 25 29 33 37 41 45 48 51 54 57 56 54 52 51 50 51 53 56 59 61 62 62 62 62 62 61 58 57 55 55 55 55 55 56 57 59 61 64 65 67 68 68 66
23 25 28 32 35 39 43 46 50 53 56 57 55 53 52 51 51 52 56 59 61 61 61 61 61 61 59 57 55 54 54 53 53 53 54 55 57 59 61 62 64 65 65 65
24 26 29 32 35 39 43 46 49 52 55 58 57 54 53 51 51 52 56 59 60 60 60 60 60 60 58 57 54 53 52 52 51 51 51 52 54 56 58 60 61 62 63 63
27 29 30 32 36 39 42 46 49 52 55 58 59 56 54 52 51 52 55 58 59 59 59 59 59 58 57 56 53 52 50 50 50 50 49 50 51 53 56 58 59 60 61 62
29 31 33 35 38 41 44 47 49 52 54 58 60 58 55 53 52 52 54 57 59 59 58 58 58 57 56 55 53 51 49 49 48 48 48 48 49 50 52 55 57 59 59 60

GEFSCGP_500_meanwind_036.txt.gz
Wind_Speed
12 13 14 16 16 16 17 17 18 18 18 19 19 21 23 25 27 30 34 38 42 45 48 51 54 58 62 67 71 75 79 82 84 87 88 88 86 84 82 81 79 74 69 64
12 14 15 16 16 15 16 16 17 18 18 19 20 22 24 26 29 33 36 40 43 46 49 53 56 60 65 69 73 76 79 83 86 88 89 87 84 82 81 78 74 69 65 63
12 13 14 15 14 14 15 17 18 19 20 21 21 22 26 28 32 35 38 41 44 47 51 54 58 63 67 70 74 77 80 84 87 88 86 84 81 80 78 74 68 65 64 64
11 12 13 14 14 15 17 18 20 21 22 23 25 24 28 31 34 37 40 42 45 49 52 56 61 64 68 71 74 78 81 85 87 86 84 82 80 79 77 72 67 65 65 66
10 12 13 14 15 17 18 20 21 22 23 24 26 27 30 33 36 38 41 43 46 50 54 58 62 65 69 72 75 79 82 85 85 84 82 80 80 78 75 71 67 66 67 69
10 12 13 15 17 18 20 21 21 23 24 25 28 30 33 35 37 39 42 44 48 51 55 59 63 66 69 72 76 79 82 84 83 82 80 79 78 76 74 70 68 68 69 71
10 12 14 16 18 20 22 24 25 26 26 27 29 31 33 35 37 40 43 45 49 52 56 59 63 66 70 73 76 79 82 82 81 80 78 77 77 75 73 72 71 72 72 72
11 13 15 17 19 21 24 26 28 30 29 28 28 30 32 35 38 41 44 46 49 53 56 60 64 67 70 73 75 79 81 81 80 78 76 76 75 74 73 73 73 75 75 75
11 13 15 18 20 23 25 27 29 31 32 31 31 33 34 37 40 42 44 47 50 53 57 60 64 67 70 72 75 78 79 79 78 76 74 73 73 73 73 73 74 76 76 74
11 13 15 18 21 25 27 30 32 34 37 37 35 35 38 39 41 43 45 47 50 53 57 61 64 67 69 72 75 77 78 78 76 74 72 72 72 73 74 74 75 76 76 72
9 12 15 18 22 25 28 30 32 34 37 39 40 38 39 40 42 44 46 48 51 54 58 61 64 67 69 72 74 76 77 76 74 71 70 70 71 72 73 74 75 75 75 71
7 10 13 17 21 25 28 30 33 35 38 39 40 40 42 42 44 45 47 49 51 55 58 61 64 66 69 71 74 75 75 74 72 70 69 69 69 71 72 73 74 75 74 71
4 8 11 15 19 23 26 30 33 35 38 40 42 42 44 44 46 47 48 50 52 55 58 61 64 66 68 71 73 74 74 72 70 68 67 67 68 69 71 72 73 74 73 71
4 7 10 14 17 21 25 29 33 36 39 41 43 45 47 48 48 49 50 51 53 55 59 61 64 66 68 70 71 72 72 70 68 67 66 66 67 68 70 71 72 73 73 70
6 8 10 13 17 20 24 28 32 35 39 42 44 47 49 50 51 51 51 52 53 56 59 61 63 65 67 69 70 71 70 69 67 66 65 65 65 66 68 70 71 72 72 71
9 10 12 14 17 19 22 26 30 34 38 41 45 48 51 53 53 53 53 54 54 56 59 61 63 64 66 68 69 70 69 67 66 65 64 63 64 65 66 68 69 70 71 71
12 13 13 15 17 19 21 25 28 32 37 42 45 49 52 55 56 56 55 55 55 57 59 61 62 64 65 67 68 68 67 66 65 64 63 62 62 63 64 66 67 68 69 69
16 16 16 17 18 21 24 26 29 32 37 41 44 49 53 56 58 58 58 57 56 57 59 60 62 63 64 65 66 67 66 66 64 63 62 61 61 62 63 64 65 66 67 68
20 19 20 20 21 21 24 28 31 34 36 40 44 49 53 56 59 60 60 59 57 57 59 60 61 62 63 64 65 65 65 65 63 62 61 60 60 60 61 62 63 65 65 66
24 23 23 23 25 26 27 30 33 36 38 42 46 49 53 56 59 61 62 60 58 58 59 60 61 61 62 63 64 64 64 64 63 61 60 59 59 59 60 60 62 63 64 64
27 26 25 25 26 28 30 32 34 36 40 43 46 49 52 55 59 61 63 62 60 59 59 60 61 61 61 62 62 63 63 63 62 60 59 58 58 58 59 59 60 62 63 64
30 29 28 27 28 30 31 33 35 37 40 42 45 48 51 54 58 61 63 63 61 60 59 60 60 60 61 61 61 62 62 62 61 60 58 58 57 57 57 57 58 59 60 61
33 32 31 30 29 32 33 34 36 38 40 43 45 48 51 54 57 60 63 64 63 61 60 60 60 60 60 60 60 60 61 61 60 59 58 57 57 56 56 56 56 57 58 58
36 35 34 32 31 34 35 36 38 40 42 44 46 48 51 53 56 60 62 64 64 62 60 60 59 59 59 59 59 59 59 60 59 57 56 56 55 56 55 55 55 55 55 56
39 37 36 35 34 36 35 38 40 42 44 45 46 49 51 53 56 59 61 64 64 63 61 60 59 58 58 58 58 58 58 58 58 57 55 54 54 54 54 54 54 54 55 55
39 37 38 37 38 40 38 40 42 44 45 46 47 49 51 53 55 58 60 63 64 64 62 60 58 57 57 57 56 56 57 56 56 56 54 53 52 52 53 53 54 54 53 54

GEFSCGP_500_meanwind_042.txt.gz
Wind_Speed
10 10 11 11 12 12 14 15 16 18 19 19 21 23 24 24 26 28 29 31 33 36 38 40 43 46 49 53 57 60 64 67 70 73 76 80 84 88 89 87 84 81 80 79
8 9 9 10 11 13 14 16 17 18 19 20 21 23 24 24 25 27 28 31 33 36 38 41 44 47 51 55 58 61 65 68 71 74 77 81 85 87 86 83 81 79 78 78
6 7 8 9 11 13 14 15 17 17 18 20 20 21 23 23 25 26 28 31 34 37 40 43 46 49 52 56 59 63 66 68 71 74 78 82 85 85 83 80 78 77 77 77
5 5 6 8 10 12 13 15 16 18 19 20 21 21 23 24 25 27 29 32 35 38 41 44 47 50 53 57 60 63 66 69 72 75 78 81 83 83 80 78 76 75 76 76
3 3 5 7 9 11 13 15 16 18 19 20 22 22 24 25 26 28 31 34 37 39 42 45 48 51 54 57 61 64 67 70 72 75 78 81 82 81 78 75 74 73 74 74
2 1 3 5 8 10 12 14 16 18 19 21 23 24 25 27 28 30 33 35 38 41 44 46 49 52 55 58 61 65 67 70 72 75 78 80 81 79 76 74 72 72 73 72
3 1 2 4 6 9 11 14 16 19 21 22 23 25 27 29 30 33 35 38 40 43 45 48 50 53 56 59 62 65 67 70 72 75 78 79 79 77 74 72 71 71 71 71
5 3 1 2 5 8 11 14 17 20 21 22 24 26 28 30 33 36 38 40 43 45 47 49 52 54 57 59 62 65 67 70 72 75 77 78 78 75 73 71 70 70 70 70
7 5 3 2 4 7 10 13 16 18 20 22 25 27 30 33 36 38 41 43 45 48 50 51 53 56 58 60 63 65 67 69 71 74 76 77 76 74 71 70 69 69 69 69
10 8 5 4 5 7 10 13 16 19 23 24 27 29 32 35 37 40 43 46 48 51 53 54 55 57 59 61 63 65 67 69 71 73 75 76 75 72 70 69 68 68 68 69
12 10 8 7 7 8 11 13 16 19 23 26 29 31 33 35 38 41 45 48 51 53 56 57 58 59 61 62 63 65 67 68 70 73 74 75 74 71 69 68 67 67 67 68
14 13 11 10 10 10 12 14 16 19 21 24 27 30 33 36 39 42 45 49 52 55 58 60 60 61 62 63 64 65 67 68 70 72 74 74 72 70 68 66 66 66 66 67
17 15 14 13 13 13 14 16 17 20 22 24 27 30 34 36 39 43 46 49 53 56 59 61 63 63 64 64 65 65 67 68 69 71 73 73 72 70 68 66 65 65 65 66
20 18 17 16 16 16 16 18 20 22 24 26 28 30 33 37 40 43 46 50 53 57 60 63 65 66 66 66 66 66 67 68 69 71 72 72 71 69 67 65 64 64 64 65
22 21 21 20 19 18 19 20 21 23 26 28 30 32 35 38 41 44 47 50 53 57 60 63 66 67 67 67 67 66 66 68 68 70 71 71 71 68 66 65 64 63 63 64
25 24 24 23 23 22 21 22 23 25 27 29 31 33 36 38 42 44 47 50 53 57 60 64 66 68 69 68 68 67 67 67 68 69 70 71 70 68 66 64 63 62 62 62
28 28 28 26 26 26 24 24 25 26 28 31 32 35 37 39 42 45 47 50 53 57 60 64 66 69 70 70 69 68 67 67 68 68 69 70 70 68 65 63 63 62 61 61
31 31 32 30 29 29 27 27 28 28 30 32 33 35 38 40 42 46 48 50 53 57 60 63 66 69 70 71 70 68 67 67 67 67 68 69 69 67 65 63 62 62 61 60
34 34 35 34 33 32 29 30 31 32 31 33 35 36 39 42 43 45 48 50 52 56 59 62 65 68 70 71 71 69 67 67 67 67 67 68 68 66 64 62 61 61 60 59
36 37 38 37 37 36 32 33 35 36 34 35 37 38 41 44 46 47 48 50 52 55 59 62 65 67 69 71 71 70 68 66 66 66 66 67 67 66 63 61 60 60 59 59
38 40 40 40 40 38 35 36 37 37 38 38 39 41 42 45 47 48 49 51 52 55 58 61 63 66 68 70 71 70 68 66 65 65 65 66 66 65 63 61 60 59 59 58
40 41 41 42 42 38 37 37 38 40 40 40 41 42 44 45 47 48 49 50 52 54 56 59 62 65 67 69 70 70 68 66 65 64 64 65 65 64 62 60 59 58 57 56
42 42 44 44 41 38 37 38 40 42 42 43 43 44 45 46 47 49 49 50 51 53 55 58 61 63 66 68 69 69 69 66 64 64 63 64 64 64 62 60 58 56 55 54
45 44 45 44 40 36 37 39 41 43 44 45 45 46 47 48 48 49 50 50 50 52 54 57 59 62 64 67 68 69 68 66 64 63 62 63 63 63 63 60 57 55 53 52
50 48 47 46 39 36 37 39 41 43 45 46 47 48 48 49 49 50 50 50 50 51 53 55 58 60 63 65 66 67 68 66 63 62 61 61 62 62 62 61 57 55 53 51
54 51 50 48 42 43 41 40 41 44 45 46 48 48 49 50 50 50 50 50 50 50 52 55 57 59 61 64 64 66 67 66 63 61 60 60 60 61 61 60 58 55 52 51

GEFSCGP_500_meanwind_048.txt.gz
Wind_Speed
11 10 9 8 9 9 10 10 11 11 11 12 13 14 14 16 18 20 22 24 26 28 30 32 35 38 40 43 46 48 50 52 54 56 59 62 64 68 71 75 80 85 89 91
10 9 8 8 8 8 9 9 9 9 11 12 13 14 15 16 18 20 22 24 27 29 31 34 37 39 42 44 47 49 52 54 55 57 60 62 65 68 72 76 81 85 89 89
11 9 8 8 7 7 7 8 8 9 9 11 13 13 15 16 18 20 23 25 28 31 33 36 38 41 44 47 49 52 54 56 57 59 61 63 66 69 73 77 82 86 87 86
11 10 9 8 7 7 7 6 7 8 9 9 11 12 14 16 19 21 24 26 29 32 35 38 40 43 46 49 52 54 57 59 60 61 63 65 67 70 74 78 82 85 85 84
12 11 10 9 8 8 7 6 6 7 8 9 11 12 14 16 19 21 24 27 30 33 36 39 42 45 48 51 54 57 59 62 63 64 65 66 69 72 75 78 82 84 83 81
14 13 12 11 10 9 8 7 7 8 8 9 11 13 15 17 19 22 24 27 30 33 37 40 43 47 50 53 56 59 62 64 66 66 67 68 70 73 75 79 81 82 81 79
16 15 14 14 13 12 11 10 9 10 10 11 12 14 16 18 21 23 26 29 31 35 38 41 44 48 51 54 58 61 64 66 68 69 69 70 71 73 76 78 81 81 79 77
18 17 17 16 15 14 13 13 13 13 14 14 14 15 17 19 22 25 27 30 33 36 39 43 46 49 52 55 59 62 65 68 70 71 72 72 73 74 76 78 80 80 78 76
21 19 19 19 18 17 16 16 16 16 16 17 17 18 19 21 23 26 29 32 34 37 40 44 47 50 54 57 60 63 66 69 71 73 74 73 73 75 76 78 79 79 77 75
22 22 21 21 21 20 20 19 18 19 20 21 21 22 24 25 27 29 31 33 36 39 42 45 48 51 54 57 61 64 67 70 72 74 75 75 74 75 76 78 78 78 76 74
24 24 23 23 23 23 23 22 22 23 24 25 26 25 27 28 30 32 34 36 39 41 44 47 49 52 55 58 61 64 67 70 72 75 76 76 75 75 76 77 77 77 75 73
25 26 25 25 26 26 26 25 25 26 27 28 30 28 29 30 32 33 36 38 41 43 46 48 50 53 56 59 62 65 67 70 73 75 77 77 76 75 75 76 77 76 74 72
27 27 27 28 28 28 28 27 28 30 31 31 32 30 32 34 35 36 38 40 42 44 47 50 51 53 56 59 62 65 67 70 73 75 77 78 77 75 75 76 76 75 73 71
29 29 29 30 31 31 31 30 32 33 34 34 33 32 32 36 38 40 41 43 44 46 48 51 52 54 56 59 61 64 67 70 72 75 76 78 77 76 75 75 76 74 72 70
32 31 31 32 34 36 35 33 34 35 36 38 36 36 34 37 39 41 43 45 46 48 50 52 54 55 56 59 61 64 66 69 72 74 76 77 78 76 75 75 75 74 71 69
34 34 34 34 35 39 39 35 36 38 37 39 40 38 37 41 41 42 44 46 47 49 51 52 54 55 56 58 60 63 66 68 71 73 75 77 77 76 75 74 74 73 71 68
36 37 38 37 38 41 40 36 38 40 40 41 42 41 42 43 44 44 46 48 49 50 51 53 55 56 56 58 59 62 65 67 70 72 74 76 77 76 74 73 73 72 71 68
38 38 40 41 42 44 39 38 39 41 41 42 43 43 45 46 46 46 48 50 50 51 52 53 55 55 56 57 58 61 63 66 69 71 73 75 76 76 74 73 72 72 70 68
40 40 42 44 45 46 41 39 40 43 43 42 44 45 47 48 48 46 48 50 51 52 53 53 54 55 56 56 57 59 62 65 68 70 72 74 75 75 74 72 71 71 69 67
42 42 44 45 47 48 43 40 41 43 44 43 45 46 47 49 50 49 50 51 52 53 53 54 54 54 55 56 57 58 61 64 67 69 71 73 74 74 74 72 70 70 69 67
46 45 46 47 50 51 45 43 43 43 42 45 46 47 49 50 51 52 53 53 54 54 54 55 55 55 55 56 57 58 60 63 66 68 70 71 72 73 73 71 69 68 67 66
51 51 50 49 52 51 45 45 43 43 44 46 48 50 51 52 53 53 54 55 55 55 55 56 56 56 56 56 57 58 60 63 65 67 69 70 71 71 72 70 68 67 66 65
57 55 54 55 55 51 49 47 46 46 48 49 51 52 54 55 55 55 55 56 56 56 57 57 57 57 57 57 58 59 60 63 65 67 67 68 69 69 70 69 67 66 65 64
62 60 61 61 57 54 53 51 50 51 53 53 54 55 57 58 58 58 58 58 58 58 58 58 58 58 58 58 59 60 61 63 65 65 66 66 67 67 68 67 66 64 63 62
65 66 66 65 61 60 57 56 56 56 57 57 57 58 59 60 60 60 60 59 59 59 59 59 60 60 59 59 59 60 61 63 64 64 64 64 64 65 65 65 64 63 62 62
63 64 66 66 63 65 63 60 60 61 60 60 60 61 60 61 62 61 61 61 61 62 61 61 61 61 61 60 60 61 62 63 64 63 62 62 62 63 63 63 62 61 61 61

GEFSCGP_500_meanwind_054.txt.gz
Wind_Speed
11 12 12 12 12 11 10 10 10 9 8 8 7 7 7 7 7 7 8 9 10 11 13 15 18 21 23 26 29 31 34 37 39 41 44 46 49 51 53 55 57 59 61 63
13 13 13 14 14 13 13 12 11 10 9 9 9 9 9 9 9 9 10 10 11 13 14 17 19 22 25 28 30 33 36 39 41 43 46 48 51 53 56 58 60 62 64 65
14 15 15 15 16 16 15 14 13 12 12 12 12 11 11 11 12 12 13 13 14 15 17 19 21 24 27 29 32 35 38 40 43 45 47 50 52 55 58 60 62 64 66 67
15 16 16 17 18 18 17 17 16 15 15 15 15 14 14 15 15 15 16 17 17 18 19 22 24 26 29 31 34 36 39 42 44 47 49 52 54 57 59 62 64 66 68 70
16 17 18 18 19 20 20 20 19 19 19 19 18 18 17 18 18 19 20 20 21 21 22 24 27 29 31 34 36 38 40 43 46 48 51 53 55 58 61 64 66 68 70 71
18 19 19 20 21 21 22 23 23 23 23 22 21 22 19 20 21 22 23 24 25 25 26 28 29 32 34 36 38 40 42 45 47 49 52 54 57 59 62 65 67 69 71 73
19 20 20 21 22 23 24 25 26 26 26 25 25 26 22 23 24 25 26 27 28 29 30 31 33 35 37 39 41 43 45 46 48 50 53 55 58 60 63 66 68 70 72 74
20 20 22 22 24 25 25 27 28 31 30 29 29 29 25 26 27 28 29 30 32 32 33 34 36 38 40 42 44 45 47 48 50 51 54 56 58 61 64 67 69 71 73 74
23 22 23 24 25 26 27 28 30 34 35 35 34 32 28 27 29 31 32 33 34 35 36 37 39 40 42 44 46 47 49 50 51 52 54 57 59 61 65 68 70 72 74 75
26 25 24 25 26 27 30 30 32 35 38 39 38 35 31 29 31 34 35 36 37 38 39 40 41 43 44 46 48 49 51 52 53 54 55 57 60 62 65 68 71 73 74 75
29 29 26 27 27 29 30 32 34 37 40 43 44 38 32 33 35 37 38 40 41 41 42 43 44 45 46 47 49 51 52 53 54 55 56 58 60 62 65 69 71 73 74 75
31 31 29 28 29 30 31 32 34 38 40 44 47 42 32 35 37 40 42 43 44 44 44 45 46 47 48 49 50 52 53 54 55 55 56 58 60 62 65 69 72 74 74 75
33 33 33 31 31 32 33 34 35 39 42 45 48 44 36 38 40 43 46 47 47 46 46 46 47 48 49 50 52 53 54 55 55 56 57 58 60 63 65 69 72 74 74 74
36 36 35 35 34 36 36 35 36 40 43 45 46 46 40 39 42 46 49 49 48 47 47 48 49 50 50 52 53 54 55 56 56 56 57 59 61 63 66 69 72 74 74 73
39 39 37 37 36 39 41 39 38 40 42 46 45 46 43 41 45 47 49 50 49 49 49 50 50 51 52 53 54 54 55 56 56 57 58 60 61 64 66 69 72 73 73 72
41 42 41 40 38 42 44 40 39 40 42 44 46 46 42 44 47 48 49 50 50 50 50 51 52 52 53 54 55 55 56 57 57 58 59 61 62 64 66 69 71 72 72 71
42 43 45 45 43 46 45 39 40 41 42 43 45 45 44 46 47 48 48 49 50 50 51 52 52 53 54 55 56 56 57 57 58 59 60 61 63 65 67 69 70 70 70 70
44 45 47 49 49 51 45 42 42 44 44 44 45 45 46 47 48 47 48 50 51 51 52 53 54 55 56 56 57 58 58 59 59 60 61 62 64 66 68 69 69 69 68 68
46 47 49 52 54 55 48 43 45 48 48 45 48 48 48 49 49 48 50 51 52 53 54 55 56 57 57 58 59 59 59 59 60 61 62 63 65 66 67 67 67 67 67 66
48 49 52 54 57 59 51 48 49 51 51 49 51 51 51 51 51 51 51 52 53 54 56 57 58 58 59 59 60 59 59 60 62 63 63 64 64 65 66 66 66 66 65 65
51 53 54 56 60 60 53 51 52 54 54 53 54 55 56 56 56 56 56 56 57 58 59 60 60 60 60 60 60 60 59 60 62 62 63 63 63 64 64 65 64 64 63 62
54 56 56 58 61 59 55 55 55 56 57 58 59 59 60 61 60 60 60 60 60 60 60 61 61 60 59 59 60 60 60 60 61 62 62 62 62 62 62 62 62 61 61 60
55 56 58 59 60 58 58 58 58 59 61 62 63 62 62 62 61 61 61 61 61 61 61 61 60 60 59 59 59 59 59 60 60 60 60 61 61 61 60 60 58 57 57 58
52 54 56 57 56 56 57 58 59 61 63 64 64 63 61 61 60 59 58 59 60 60 59 59 58 58 58 58 58 58 58 59 59 59 60 60 59 59 58 57 56 55 55 55
45 46 48 49 48 50 51 53 55 58 60 60 60 60 59 59 58 58 57 57 57 56 55 55 55 55 55 55 55 56 57 58 58 58 58 57 57 56 55 54 53 53 53 53
37 40 44 45 43 47 47 48 50 52 53 54 55 55 55 56 55 54 54 54 54 54 53 53 53 53 52 53 53 54 54 54 55 55 56 56 55 54 53 52 50 50 51 50

GEFSCGP_500_meanwind_060.txt.gz
Wind_Speed
18 19 20 20 20 21 21 21 21 22 23 22 20 18 19 20 18 18 18 18 18 19 20 20 22 23 24 25 27 28 29 31 32 33 35 36 39 41 43 45 47 48 49 50
20 20 21 21 22 23 23 23 23 24 25 25 23 21 22 22 21 21 20 20 21 22 22 23 24 26 27 29 30 31 32 34 35 36 38 39 41 43 45 47 49 50 51 52
21 21 23 23 23 24 24 25 25 26 27 27 27 23 23 24 23 23 23 23 23 24 25 26 27 28 30 31 33 34 35 37 38 40 41 42 44 46 48 49 51 52 54 55
21 22 24 24 25 27 26 27 28 28 29 29 29 28 19 25 24 24 24 25 25 26 28 29 30 31 32 34 35 37 38 40 41 43 44 45 47 48 50 52 53 54 56 57
23 23 24 25 26 28 29 29 30 31 31 30 30 32 23 25 25 26 27 27 27 29 30 31 32 33 35 37 38 40 41 42 44 45 47 48 49 51 53 54 55 56 58 59
23 24 25 26 27 29 30 31 33 32 32 32 31 33 28 25 27 27 28 29 29 31 32 33 35 36 38 40 41 43 44 45 47 48 49 50 52 53 55 55 56 58 59 61
24 25 27 27 28 29 31 32 35 36 34 33 33 33 29 27 28 29 30 31 32 33 35 36 38 40 41 43 44 46 47 48 49 50 51 52 54 55 56 57 58 59 60 62
25 25 27 28 29 30 31 33 35 39 39 36 35 34 29 28 29 30 31 33 35 37 39 40 42 44 45 46 47 49 50 51 52 52 53 54 55 57 58 58 59 60 62 64
29 28 28 29 31 32 33 33 35 39 41 40 37 35 31 28 27 29 31 34 37 40 42 44 46 47 48 49 50 51 52 53 54 54 55 56 57 58 59 60 61 62 63 65
33 32 29 30 31 32 34 35 36 38 42 44 41 37 33 30 29 30 33 36 39 42 45 47 49 51 52 52 53 53 54 55 55 56 57 58 58 60 61 62 62 64 65 66
35 35 33 32 33 34 35 35 37 40 42 45 47 41 35 35 34 35 36 39 42 45 48 50 52 53 54 55 55 56 56 56 57 58 58 59 60 61 62 63 64 65 66 67
37 38 37 35 34 35 36 37 38 40 43 45 49 47 38 38 39 40 42 43 45 47 49 51 52 54 54 55 56 56 57 57 58 58 59 60 60 61 63 63 65 66 66 67
39 41 41 39 37 38 39 39 39 42 44 45 48 48 42 44 45 45 47 47 48 49 50 51 53 54 54 55 56 56 57 57 58 59 60 60 61 62 63 64 65 66 66 67
42 43 43 43 41 42 43 42 42 43 45 48 49 50 46 47 50 50 50 51 51 52 52 53 54 54 55 55 56 56 57 57 58 59 59 60 61 63 63 64 64 64 65 66
44 46 45 45 44 45 47 46 44 45 45 49 51 52 51 52 54 54 54 55 55 55 55 55 55 55 55 56 56 57 57 58 58 58 59 60 62 62 63 63 63 63 64 65
45 48 48 48 46 48 50 46 44 46 47 50 52 53 51 54 55 57 58 58 58 58 57 57 56 56 56 57 57 57 57 58 58 59 60 61 62 63 63 63 63 63 64 65
46 47 50 51 49 52 50 46 46 47 48 50 52 53 54 56 57 58 59 59 59 58 58 57 56 56 57 57 58 58 58 58 58 59 61 62 62 62 62 63 62 62 63 64
47 48 51 52 52 54 50 49 49 50 50 51 52 54 57 58 58 60 60 60 59 60 59 59 58 58 58 59 59 58 58 58 59 60 61 61 61 61 62 61 61 62 62 62
44 46 49 52 53 54 50 50 53 54 53 52 55 56 58 59 58 59 59 60 61 61 60 60 60 60 60 59 58 58 58 59 59 59 59 60 60 60 60 60 60 59 59 58
41 43 46 49 52 54 51 51 52 54 54 54 55 56 57 58 58 56 56 58 58 59 59 60 60 60 59 58 58 58 58 58 58 58 58 58 58 58 57 58 57 57 57 56
43 45 46 48 51 52 51 52 53 54 55 55 55 56 56 56 56 54 54 54 55 56 57 58 58 58 57 57 57 56 55 56 56 55 55 55 55 55 55 55 54 54 53 53
43 45 46 48 50 49 50 52 53 53 54 54 54 54 54 53 53 53 53 54 54 54 55 56 56 55 54 54 54 53 53 54 53 53 52 52 53 53 53 52 51 51 50 50
44 44 46 48 48 48 49 51 52 52 53 52 52 51 51 51 51 52 52 51 51 51 52 52 51 50 50 51 51 51 51 52 51 50 50 51 52 52 51 50 49 48 48 48
45 45 47 48 47 47 49 50 50 51 51 51 51 51 50 51 51 52 51 50 49 49 48 48 47 46 47 48 49 49 50 50 50 50 51 52 51 51 50 49 48 47 47 46
47 47 49 50 49 49 49 49 50 50 51 51 51 50 50 51 50 49 48 48 48 47 47 47 46 46 45 46 47 48 49 49 50 51 52 52 52 51 51 49 48 47 47 46
46 48 51 52 52 54 51 52 52 53 52 52 51 50 50 50 49 48 48 49 49 49 48 47 46 47 47 47 48 49 51 52 52 53 53 53 52 51 50 49 48 48 47 45

GEFSCGP_500_meanwind_066.txt.gz
Wind_Speed
22 23 24 24 24 24 24 24 24 25 26 25 23 21 22 25 27 26 26 26 26 26 28 28 27 28 28 29 30 31 32 33 34 35 36 37 38 40 42 43 45 46 47 48
21 22 23 24 24 25 26 26 26 26 27 27 24 21 24 25 27 27 28 28 28 29 30 30 31 31 31 32 33 34 35 36 37 38 39 39 41 42 44 46 48 50 50 51
19 20 21 22 24 25 26 27 27 27 27 27 25 19 22 25 27 28 29 29 30 31 32 33 33 33 34 35 36 37 38 39 40 41 42 42 44 45 47 49 51 52 53 54
17 19 20 22 24 25 25 27 28 28 28 26 27 23 22 24 27 28 29 30 32 33 34 35 35 35 37 38 40 40 41 42 43 45 45 46 47 48 50 52 53 54 55 56
18 18 19 21 23 25 26 27 28 28 28 27 27 26 24 25 26 28 30 31 32 33 35 37 38 38 39 41 42 43 45 45 46 48 49 50 50 52 54 55 55 57 57 58
19 20 20 22 24 26 28 29 30 30 29 28 27 26 25 26 27 28 29 31 32 33 35 37 39 40 42 43 45 46 47 48 49 50 51 52 53 55 56 56 57 58 59 59
20 22 23 24 26 27 29 31 33 33 32 30 29 29 27 30 31 31 32 32 32 33 34 36 38 40 42 44 46 48 49 49 51 52 52 54 55 56 57 58 58 59 60 60
22 23 24 25 27 28 29 31 33 36 36 35 32 30 28 31 34 34 35 35 34 34 35 36 36 38 40 42 45 46 48 49 51 52 53 55 56 57 58 59 61 60 60 60
25 25 25 27 28 30 31 32 34 37 40 40 37 34 29 32 35 37 39 39 38 37 37 38 38 40 41 42 44 46 48 49 51 53 54 55 56 58 59 60 61 61 62 62
28 28 27 28 29 31 33 35 36 38 41 44 43 39 34 35 36 38 40 40 40 39 40 40 41 42 43 44 45 46 48 49 51 52 54 55 56 57 58 59 60 61 62 62
31 31 30 30 31 32 33 34 36 39 41 44 47 44 37 37 38 42 44 44 43 42 42 42 43 43 44 45 46 47 48 50 51 52 54 55 55 56 57 58 60 61 62 62
33 34 34 33 33 34 35 36 37 39 42 43 47 46 38 39 44 48 49 48 47 46 46 45 45 45 45 46 47 48 49 50 51 51 52 53 54 56 57 58 59 61 62 62
34 35 36 36 35 36 37 37 38 40 42 44 46 46 42 43 47 49 50 49 49 49 48 48 48 48 48 48 48 49 49 49 50 50 51 52 54 55 56 57 58 59 60 60
35 35 36 36 36 38 38 37 38 39 41 43 44 44 42 44 47 48 49 49 50 50 50 50 50 50 49 49 49 49 49 48 48 49 50 52 53 55 56 56 56 57 58 58
36 35 35 35 35 36 37 36 36 38 40 43 43 44 44 46 48 48 48 49 49 50 50 50 50 50 49 49 48 48 48 48 48 49 51 53 54 55 56 56 56 56 57 58
34 35 34 33 33 35 35 33 34 37 39 41 42 43 44 47 48 48 49 49 49 49 49 49 49 48 48 48 48 48 48 49 50 52 53 54 55 55 55 55 55 56 56 57
32 34 35 34 34 35 33 33 35 37 38 40 42 43 45 46 47 47 47 48 49 49 48 48 47 47 47 48 48 48 49 50 51 52 53 54 54 54 54 54 54 55 55 55
32 33 36 36 36 37 35 35 37 39 40 41 42 44 45 45 46 47 47 48 48 48 47 47 47 48 48 49 49 50 50 50 51 52 52 52 52 52 52 52 52 52 52 52
32 34 37 38 40 40 36 39 41 43 42 44 45 46 46 47 47 48 49 48 49 49 49 49 49 49 49 50 50 50 50 50 50 50 49 50 49 49 49 49 50 50 51 51
33 35 37 39 42 43 42 44 46 47 48 48 49 49 50 51 51 50 51 50 50 50 50 50 49 49 49 50 50 50 50 50 49 48 48 48 47 46 47 48 49 49 49 50
36 38 39 41 44 45 46 48 50 51 53 53 53 54 54 55 55 55 55 55 54 53 52 52 51 50 50 50 50 50 50 50 49 49 49 48 48 48 49 49 50 50 51 52
40 42 44 46 48 48 50 52 54 55 56 57 57 57 58 58 59 59 59 58 57 56 55 54 53 52 51 51 51 50 50 50 49 49 48 48 49 50 50 51 52 52 53 53
45 46 48 50 51 51 54 56 58 59 60 60 61 61 62 62 62 62 62 61 59 58 57 56 54 53 53 52 52 52 51 50 49 48 49 49 50 51 52 53 53 53 54 54
50 50 51 54 54 55 58 59 61 62 63 64 64 65 66 65 65 65 64 63 61 60 58 57 56 55 54 53 53 53 52 51 51 50 51 51 51 51 52 53 53 54 55 55
53 54 56 58 58 60 61 63 64 65 66 67 67 68 68 68 67 66 65 63 62 60 59 57 56 56 55 54 54 54 54 53 52 52 51 51 51 51 52 53 54 55 55 55
55 58 61 62 63 65 65 67 68 69 69 70 70 70 69 68 67 65 63 62 61 60 59 57 56 56 55 55 54 54 54 53 53 52 52 52 53 54 54 55 55 55 55 55

GEFSCGP_500_meanwind_072.txt.gz
Wind_Speed
19 20 20 20 21 21 21 21 21 22 22 22 23 25 25 26 26 26 26 27 27 27 28 28 28 29 31 32 34 34 36 37 39 40 40 41 42 43 43 44 44 46 47 49
17 18 18 18 18 19 20 20 20 20 21 21 21 24 25 24 25 26 26 26 27 27 28 28 29 29 31 32 34 35 36 38 40 41 42 43 44 45 45 46 47 48 50 52
16 16 16 17 17 18 19 20 20 20 20 20 21 22 26 25 25 26 26 26 27 27 28 28 28 29 30 32 33 35 36 37 39 41 43 44 45 45 46 48 50 52 54 55
15 15 16 17 18 19 19 20 21 22 22 21 22 21 26 28 27 27 27 27 27 28 28 28 29 30 31 32 33 35 36 38 39 41 43 45 46 47 48 51 52 54 55 56
15 15 16 17 19 20 21 22 23 24 24 23 23 22 24 29 29 30 29 29 29 29 30 30 31 32 32 33 34 36 37 39 41 42 44 46 47 49 51 53 54 55 56 57
16 16 17 18 20 22 23 24 25 26 26 26 24 24 24 28 30 33 33 32 31 31 31 32 32 32 33 34 35 37 38 40 42 44 46 47 49 51 53 54 55 56 57 58
17 17 19 20 22 23 24 26 28 29 29 29 28 27 25 29 31 33 35 35 34 32 31 32 33 34 35 36 37 39 40 42 44 45 47 49 51 53 54 56 57 58 60 60
20 20 19 21 23 25 25 27 28 30 30 30 29 27 27 29 32 35 36 37 35 32 31 33 34 36 37 38 39 41 42 44 46 47 49 51 53 54 55 57 58 60 61 61
22 22 21 22 24 26 27 28 29 31 32 34 32 30 29 29 31 34 36 36 33 32 33 34 35 37 38 40 41 42 44 46 47 49 51 53 54 55 56 57 59 60 61 63
24 24 23 23 25 27 28 30 31 32 34 35 34 33 31 31 32 33 34 35 34 34 34 35 36 37 39 40 41 43 45 47 49 50 52 53 55 56 57 58 60 61 62 64
26 26 25 25 25 27 28 29 31 32 33 35 35 31 30 31 31 32 33 34 35 34 35 36 38 39 41 42 43 45 46 48 49 51 53 54 55 57 58 59 60 61 62 63
27 28 27 27 28 29 30 29 30 31 32 33 34 31 30 32 34 35 35 35 36 36 37 39 41 43 44 45 46 47 48 49 50 51 52 53 55 56 57 58 58 59 59 60
29 29 29 28 30 30 29 28 28 30 31 31 32 31 30 34 37 38 38 38 39 41 42 43 44 45 46 47 48 49 50 51 51 51 52 53 54 55 55 55 56 57 58 59
30 30 29 29 29 31 30 29 29 31 32 33 32 32 31 35 37 38 39 41 42 43 45 46 47 48 50 51 52 53 53 53 54 54 55 55 55 55 56 56 57 57 58 59
31 30 30 29 29 29 28 28 29 32 33 36 34 35 36 38 38 40 42 44 46 46 47 49 50 52 53 54 55 55 56 56 57 57 57 56 56 57 57 57 58 58 59 59
31 32 31 28 28 29 27 28 30 31 33 36 37 37 39 41 42 44 45 48 49 50 52 53 55 56 57 58 59 59 59 60 60 60 59 58 57 57 58 58 58 58 59 59
30 31 31 29 29 31 29 30 32 34 35 37 39 41 43 44 46 48 50 52 54 55 56 58 59 60 61 63 63 64 63 63 63 62 61 60 59 58 58 58 58 58 59 59
31 32 33 32 32 33 32 32 34 37 38 40 43 45 46 48 49 51 54 56 57 59 61 62 64 65 66 67 67 67 66 65 65 63 62 61 60 60 59 59 58 58 57 57
32 33 35 36 37 36 33 35 38 41 43 44 46 48 50 52 54 55 57 60 62 64 66 67 69 70 70 70 70 69 68 66 65 64 63 62 61 60 59 58 58 58 57 56
31 33 36 37 40 40 39 41 43 46 48 49 51 53 55 57 59 60 62 65 67 69 70 72 73 73 73 72 71 70 68 66 64 63 63 62 61 61 60 59 59 58 58 57
32 35 36 39 43 44 44 46 48 50 53 54 56 58 60 62 65 66 68 70 72 74 75 75 76 76 74 73 71 69 66 64 63 62 61 61 61 61 61 60 59 58 57 56
36 37 38 42 45 46 48 50 52 55 57 59 60 62 64 66 69 71 73 74 75 77 77 77 76 75 72 70 69 66 64 63 62 61 60 60 60 60 60 59 58 57 56 55
38 39 42 45 47 49 52 54 57 59 61 63 65 66 68 70 72 74 75 77 78 78 78 76 75 72 69 67 66 65 63 62 61 60 59 59 59 58 57 56 55 54 54 54
42 42 45 49 50 52 54 57 60 62 64 66 68 70 72 74 75 76 77 78 77 77 75 73 71 69 66 64 63 63 62 60 59 58 58 57 56 54 53 53 53 52 52 51
43 47 52 54 55 58 59 61 63 65 67 69 71 73 75 76 76 77 77 76 75 73 71 70 67 65 63 62 61 60 59 58 57 56 55 54 53 52 51 50 51 50 50 50
47 52 57 58 59 62 63 65 67 68 70 72 73 74 75 76 76 75 74 73 71 68 66 64 63 62 61 60 58 57 57 56 56 54 53 52 51 50 49 49 48 48 48 48

GEFSCGP_500_meanwind_078.txt.gz
Wind_Speed
15 16 15 15 14 14 14 14 15 16 15 14 15 15 15 16 16 17 17 17 18 18 18 19 20 21 22 23 24 25 27 29 30 32 33 34 35 36 37 39 41 43 45 47
15 15 14 13 12 12 13 13 13 14 14 14 15 16 16 16 16 17 17 18 19 19 20 21 21 22 23 24 25 26 28 29 31 32 34 35 36 37 39 40 42 44 46 48
14 14 13 13 13 13 13 13 12 12 14 16 16 17 17 17 17 17 18 19 20 21 22 23 23 24 25 26 27 28 29 30 31 33 34 35 36 38 39 42 44 46 47 49
14 13 13 13 13 13 13 14 13 13 14 16 18 20 20 18 18 18 19 19 21 22 23 24 26 27 27 28 28 28 29 30 32 33 34 36 37 38 40 43 44 46 48 50
14 14 14 14 14 14 15 16 16 16 16 17 18 20 22 21 20 20 20 20 21 22 23 24 26 27 27 28 28 28 29 30 32 33 35 36 38 39 41 43 45 48 50 52
16 15 15 15 16 16 16 18 18 18 18 18 18 20 22 23 22 22 22 21 21 22 22 23 24 26 27 27 28 29 30 31 32 34 35 37 38 40 42 44 46 48 50 53
17 16 16 17 17 17 18 19 20 20 19 19 19 20 22 23 24 24 23 22 21 21 21 22 24 26 27 28 29 30 31 32 33 34 36 38 40 41 43 45 47 49 52 54
18 17 18 18 19 19 20 20 21 22 21 20 20 21 23 24 25 24 23 21 20 20 20 22 24 26 27 28 30 31 33 34 36 37 39 41 42 44 46 48 50 51 53 55
19 19 19 19 20 21 21 21 22 24 24 22 21 22 24 25 25 23 22 20 20 20 22 24 26 27 29 30 32 34 35 37 39 40 42 44 46 47 49 51 53 54 56 57
21 21 20 21 22 23 23 23 24 25 26 26 23 22 24 24 23 22 21 21 22 23 25 26 28 30 32 34 36 38 39 41 42 44 46 48 50 52 53 55 57 58 60 61
23 23 21 22 23 24 24 25 26 27 27 28 26 21 23 23 23 23 23 23 25 26 28 30 32 34 36 37 40 42 44 46 47 49 51 53 55 57 59 61 62 63 65 66
25 25 23 24 25 26 26 26 27 28 29 28 26 21 23 23 24 24 25 27 29 31 33 34 36 38 40 42 44 46 49 51 53 55 57 59 61 63 65 66 67 68 69 70
27 27 26 25 27 28 28 28 29 29 29 28 25 21 24 26 26 27 28 31 33 35 37 39 41 43 45 47 49 51 54 56 58 61 63 65 67 68 70 71 72 73 73 72
29 29 28 28 29 30 29 29 29 30 30 28 24 22 23 27 29 30 33 35 37 39 41 43 45 47 49 52 54 57 59 61 64 66 68 70 72 73 75 76 76 76 75 74
32 31 31 30 31 32 30 29 30 31 31 30 27 27 26 29 31 34 36 38 40 42 45 47 50 52 54 57 60 62 64 67 69 72 74 75 77 78 78 78 78 77 75 74
33 34 33 32 32 32 30 29 30 31 32 32 31 30 30 32 34 37 39 41 43 46 49 52 54 57 59 62 65 67 69 72 75 77 78 79 80 79 79 78 77 75 74 72
34 35 35 34 32 33 31 30 31 32 33 33 32 32 34 35 38 40 42 45 47 50 53 56 59 61 64 67 69 72 74 76 79 80 81 81 80 79 78 76 75 73 71 69
35 35 37 36 34 33 32 32 32 32 32 33 34 35 37 39 41 43 46 49 52 55 58 61 63 66 68 71 74 76 78 79 81 82 82 81 79 77 75 73 71 69 68 66
35 36 38 38 37 34 32 33 32 33 34 35 37 38 40 42 44 47 50 53 56 59 62 65 67 70 72 75 77 79 80 81 82 81 80 78 75 73 70 68 66 65 63 62
36 37 39 39 38 36 33 34 35 36 37 37 39 41 43 45 48 50 53 56 59 62 65 68 71 73 75 77 79 81 81 82 81 79 76 73 70 68 65 63 62 61 60 58
36 37 38 39 39 37 36 37 37 39 40 41 42 44 46 49 52 55 58 61 64 66 69 71 74 75 77 79 81 81 81 80 79 76 72 68 65 64 62 61 60 59 57 55
36 37 37 38 39 39 39 39 40 41 42 44 46 48 51 53 56 59 62 65 67 69 71 73 75 76 78 80 80 80 78 77 74 70 66 63 61 60 60 59 57 56 55 53
36 36 37 38 39 41 41 42 43 44 45 47 50 52 55 58 60 63 65 67 69 71 73 75 76 77 78 78 78 77 75 72 68 64 61 60 59 58 58 57 55 53 53 52
36 37 38 39 40 42 43 44 45 46 49 51 54 56 59 62 64 66 68 69 71 73 74 76 77 77 76 75 74 72 70 67 63 61 59 58 57 56 54 53 52 51 50 49
35 37 39 41 42 43 44 46 47 50 52 54 57 60 63 65 66 68 69 71 72 74 75 76 76 75 74 73 70 67 65 62 60 58 57 56 55 54 51 50 50 48 47 47
35 39 42 42 42 44 46 48 50 52 54 57 60 62 64 66 67 69 70 71 73 74 75 75 73 72 71 69 65 63 61 60 58 56 55 53 52 50 49 47 45 45 45 44

GEFSCGP_500_meanwind_084.txt.gz
Wind_Speed
21 22 22 22 22 22 21 21 20 20 18 17 16 16 17 18 18 18 19 20 21 22 23 23 24 25 25 26 27 27 28 28 28 29 29 30 30 32 33 35 36 38 39 40
22 22 22 21 21 21 20 19 19 18 17 16 16 16 17 17 18 19 21 22 23 24 25 26 27 27 28 29 29 29 29 29 30 30 30 30 31 32 34 35 36 38 39 40
22 23 22 21 20 20 19 18 18 18 18 17 16 16 17 18 19 21 23 24 25 26 27 28 29 29 30 30 30 30 30 29 29 29 29 30 30 32 33 35 36 38 39 41
23 23 22 21 21 20 19 18 18 18 19 18 18 18 18 19 21 23 24 26 27 27 28 29 29 30 30 30 29 29 29 28 28 28 29 30 30 32 33 35 36 38 40 41
24 23 22 22 21 20 19 19 19 19 20 19 20 21 20 21 22 24 25 27 27 28 28 29 29 30 29 29 28 28 27 27 27 28 29 30 32 33 34 36 38 39 41 43
24 24 23 22 22 21 21 21 21 21 21 20 21 22 22 21 23 25 26 26 27 28 28 29 29 29 29 28 27 26 26 27 28 29 30 31 33 34 36 38 39 41 43 46
25 24 24 23 23 23 22 22 23 22 21 21 22 23 23 23 24 25 26 27 28 28 29 29 29 28 27 27 27 26 27 28 29 31 32 34 35 37 39 41 42 45 47 49
25 25 25 24 24 24 24 24 25 25 23 22 23 24 24 24 25 26 27 28 29 29 29 28 28 28 27 27 28 29 30 31 32 34 36 38 39 41 43 46 48 50 52 54
26 26 26 26 25 25 25 25 26 27 26 25 25 24 25 25 27 28 29 29 29 29 28 28 28 28 28 29 31 32 33 35 36 38 40 42 44 46 48 50 53 55 58 60
28 27 26 27 27 27 27 27 27 27 29 29 26 25 26 27 28 29 30 30 29 29 29 29 29 29 31 33 34 36 37 39 40 42 44 47 49 51 54 56 58 61 63 66
29 29 28 28 28 28 28 28 29 30 31 31 30 27 28 30 31 31 31 31 30 30 31 31 32 33 35 37 38 39 41 43 45 47 49 52 54 57 59 61 64 66 69 71
31 32 30 30 30 30 31 30 30 31 32 33 33 31 30 32 32 33 33 32 32 32 33 34 35 37 39 40 42 44 45 47 50 52 54 57 59 62 64 66 69 72 74 76
33 34 32 32 31 32 32 32 32 34 34 34 34 33 33 34 35 35 35 34 34 35 36 37 39 41 42 44 46 47 49 52 54 57 59 62 64 66 69 71 74 76 79 81
35 35 34 33 33 34 34 34 34 35 36 37 35 34 33 36 37 37 36 36 37 38 39 40 42 44 46 48 49 51 54 56 59 61 64 66 69 71 73 76 78 80 83 85
37 37 36 35 36 37 37 36 36 37 37 39 37 36 34 36 38 38 38 39 39 40 41 43 45 47 49 51 53 55 58 61 63 66 68 70 73 75 77 79 82 84 86 88
38 39 38 37 37 39 39 36 37 38 39 40 40 37 35 37 38 39 39 40 41 42 44 46 48 50 52 54 57 59 62 65 67 69 71 74 76 78 80 83 85 86 87 88
39 40 40 40 39 42 41 37 38 40 40 41 40 38 38 37 38 39 40 42 43 45 47 48 50 52 55 58 60 63 65 68 70 73 75 77 79 81 83 85 87 87 87 85
39 40 42 43 42 44 41 40 39 41 41 40 40 39 39 39 39 41 42 43 45 47 49 51 53 55 58 61 63 66 69 71 73 75 77 79 82 84 85 86 87 86 84 80
42 42 43 45 46 46 42 41 41 42 41 40 40 40 40 41 42 43 44 45 47 49 51 53 55 58 61 64 67 69 71 73 75 77 79 81 83 85 86 86 85 82 79 74
42 42 44 46 48 49 45 43 42 43 43 39 40 41 41 42 43 44 46 47 49 52 54 56 58 61 64 67 69 71 73 75 77 79 81 82 84 85 85 83 81 77 73 69
42 44 45 46 49 50 46 45 43 43 42 41 41 41 42 43 44 46 47 50 52 54 56 59 61 64 67 69 71 73 75 77 78 80 81 83 83 83 82 79 75 72 68 64
44 46 46 47 49 47 46 45 44 43 43 42 42 42 43 44 46 48 50 52 54 56 59 61 64 66 69 71 74 75 76 78 79 81 82 82 81 79 77 74 69 66 63 60
47 47 48 47 47 46 45 44 44 43 43 43 43 44 45 46 48 50 52 54 56 59 61 64 66 68 70 73 75 76 78 79 80 81 81 80 77 74 71 68 65 61 59 57
47 47 47 47 46 45 45 44 44 44 44 44 45 46 47 49 51 52 54 56 58 61 64 66 68 70 72 74 75 77 79 80 81 80 79 76 73 70 66 63 61 59 56 54
46 45 45 46 45 45 44 44 44 44 44 45 46 47 49 51 52 54 56 59 61 64 66 68 70 72 73 75 76 78 80 80 80 78 75 72 69 65 62 58 56 55 53 52
44 44 45 45 44 44 44 44 44 44 45 46 48 49 51 52 54 56 59 61 63 66 68 70 72 73 74 76 77 78 79 79 78 75 72 68 65 61 58 54 51 50 50 49

GEFSCGP_500_meanwind_090.txt.gz
Wind_Speed
25 24 24 23 22 22 21 21 21 21 19 19 19 19 19 18 18 17 17 18 18 18 19 19 20 21 23 24 25 26 27 28 28 28 29 29 30 30 31 31 32 32 32 33
25 24 24 23 22 22 21 21 21 20 19 18 19 19 19 19 18 18 18 18 19 19 20 22 23 24 25 26 26 27 28 28 28 29 29 29 29 29 30 30 31 31 31 32
26 25 24 23 22 22 22 22 21 20 19 19 19 19 19 19 19 19 20 20 21 21 22 23 24 25 26 26 27 28 28 28 28 28 27 27 27 27 28 28 29 30 32 33
26 26 25 24 24 23 23 22 21 21 20 19 19 20 20 20 20 21 21 22 22 23 24 25 25 26 27 28 28 29 29 28 27 26 25 25 25 26 27 29 30 31 32 34
27 26 25 24 24 24 23 22 22 21 21 20 20 21 20 20 21 22 22 23 24 24 25 26 26 27 28 29 29 29 29 27 26 25 25 26 27 28 29 31 32 33 34 36
28 27 25 25 24 23 23 23 23 22 22 21 20 22 21 20 22 23 24 24 25 25 26 26 27 28 29 30 30 29 28 27 26 26 27 28 29 30 32 33 35 36 38 40
29 27 26 26 25 24 23 23 24 23 23 22 22 22 22 21 23 24 25 25 25 26 27 27 28 29 30 30 29 28 28 28 28 29 30 31 32 34 35 36 38 40 42 44
29 27 26 25 25 25 24 24 24 25 24 23 23 23 22 22 23 25 26 26 26 27 28 29 30 31 31 30 30 29 29 30 31 32 33 34 35 37 38 40 42 43 46 48
28 27 27 26 26 25 25 24 25 26 26 25 24 23 23 23 24 26 27 27 28 29 30 31 32 32 32 32 31 31 31 32 33 35 36 37 39 40 42 44 46 48 50 52
28 28 27 27 26 26 25 25 25 27 27 27 25 23 23 24 25 27 28 29 30 30 32 33 33 34 34 33 33 33 34 35 36 37 39 40 42 44 46 48 50 52 55 57
28 28 27 27 26 26 26 26 26 28 28 28 28 25 24 26 27 29 30 31 31 32 34 35 35 36 35 35 35 36 37 38 39 40 42 44 46 47 50 52 54 56 59 61
28 29 28 28 27 27 27 27 28 29 30 30 30 28 26 28 29 31 32 33 33 34 35 37 37 37 37 37 37 38 39 40 42 44 45 47 49 51 53 56 58 61 63 66
30 30 29 29 29 28 29 29 30 31 32 32 31 29 28 30 32 34 34 35 36 36 37 38 38 38 38 39 39 40 42 43 45 47 48 50 52 55 57 59 62 65 67 70
33 33 32 31 31 31 31 31 31 33 33 34 32 30 30 33 36 36 37 38 38 39 39 39 39 40 40 40 42 43 44 46 48 49 51 53 56 58 60 63 66 68 71 73
35 35 34 33 33 34 33 33 32 33 34 36 34 33 32 36 38 38 39 39 40 41 41 40 41 41 42 43 44 45 47 48 50 52 54 57 59 62 64 67 69 72 74 76
37 37 36 36 35 36 36 35 34 34 35 36 37 36 35 38 39 40 41 42 42 42 42 42 42 43 43 45 46 47 49 51 53 55 57 60 62 64 67 70 73 75 77 78
39 38 39 39 37 39 39 34 35 37 36 37 39 38 39 39 40 42 43 43 42 42 42 43 43 44 45 46 48 50 52 54 56 58 60 63 65 67 70 73 75 77 78 80
40 39 40 41 40 43 39 36 35 37 37 38 40 40 41 42 43 43 42 42 42 43 43 44 45 46 47 48 50 52 54 56 58 60 63 65 68 70 73 75 77 79 80 81
41 41 42 43 44 44 41 38 37 39 39 38 40 41 42 42 43 42 42 42 42 43 43 44 45 47 48 50 51 53 56 58 60 62 65 68 70 73 75 77 78 80 81 82
41 41 43 44 45 46 43 40 39 41 41 38 40 40 41 41 42 42 42 42 42 43 43 45 46 48 49 51 53 55 57 60 62 65 67 70 72 75 77 78 80 81 82 83
41 42 43 44 46 46 44 42 41 41 41 40 40 40 41 42 42 41 41 41 42 43 44 46 47 49 51 53 55 57 59 62 65 67 69 72 74 76 78 79 80 82 82 82
41 42 43 44 46 45 42 43 42 43 43 42 42 41 41 41 41 41 41 42 43 44 45 47 48 50 53 55 57 59 62 64 67 69 71 73 75 77 78 80 81 81 81 79
42 43 43 44 44 43 43 44 44 44 44 43 42 42 42 41 41 41 42 43 44 45 46 48 50 52 54 57 59 61 64 67 69 71 73 75 76 77 79 80 80 79 77 75
42 42 43 43 42 42 43 43 43 44 44 44 43 43 43 43 42 42 43 44 45 46 47 49 51 53 55 58 61 64 67 69 71 72 74 75 77 78 79 79 78 76 73 70
42 42 43 42 41 42 43 44 44 45 44 44 44 43 43 42 42 43 44 45 46 47 49 51 53 55 57 60 63 66 69 71 72 73 75 76 78 79 78 77 75 72 68 65
41 42 42 43 43 44 44 45 45 45 44 44 43 43 43 43 43 44 45 46 47 49 51 53 55 57 60 63 65 68 70 72 73 75 76 78 78 78 77 75 71 66 63 59

GEFSCGP_500_meanwind_096.txt.gz
Wind_Speed
34 34 31 30 29 28 27 26 25 26 25 24 23 23 22 20 20 20 20 19 19 19 19 19 19 19 20 21 22 23 24 25 26 27 28 29 29 30 30 30 30 30 30 30
36 33 31 31 30 28 27 26 26 27 26 24 24 23 22 20 20 20 20 19 19 19 19 19 19 20 21 22 23 24 25 25 26 27 28 29 30 30 30 29 29 29 29 29
36 32 31 31 30 28 27 26 26 26 26 25 25 23 22 20 20 20 20 20 20 20 19 20 20 21 22 23 24 25 26 26 27 28 29 29 30 29 29 28 28 28 29 29
36 33 32 31 30 29 27 26 26 26 27 26 26 25 21 20 21 21 21 21 20 20 21 21 22 23 24 25 25 26 27 27 29 30 30 30 30 29 29 29 29 30 30 31
35 33 32 32 30 30 27 27 27 27 28 27 25 27 23 20 20 22 22 22 21 22 22 23 23 24 25 26 26 27 28 29 30 31 31 31 30 30 30 31 31 32 33 33
33 33 32 31 30 29 28 28 28 28 29 27 23 28 25 21 20 22 23 23 23 23 23 24 24 25 26 27 28 29 30 31 32 33 33 33 32 32 32 33 34 35 36 37
32 33 32 31 30 29 28 28 28 28 28 28 25 27 26 23 22 23 23 23 23 24 24 25 25 27 27 28 29 30 31 33 34 34 35 34 34 34 35 36 36 37 39 40
33 32 32 31 30 29 29 29 28 29 28 28 26 25 24 23 24 24 24 24 24 25 26 26 27 28 29 30 31 32 33 35 35 36 36 36 36 37 37 38 39 40 41 43
33 34 33 31 31 31 30 29 28 29 28 28 27 26 24 22 25 25 25 25 26 27 27 28 29 30 31 32 33 34 36 36 37 38 38 38 38 39 39 40 41 43 45 46
32 34 34 32 32 31 31 29 28 29 28 29 28 26 25 21 23 26 26 27 27 28 28 29 30 31 33 34 36 37 38 38 39 39 39 40 40 41 42 43 44 46 48 49
32 33 33 31 31 30 30 28 28 29 29 29 29 28 26 23 24 26 28 29 29 29 30 31 32 34 35 37 38 39 40 40 40 40 41 41 42 43 44 45 46 48 50 51
31 32 32 31 31 31 30 29 29 30 29 30 30 29 26 26 26 28 29 30 30 31 32 33 34 36 37 39 40 41 42 42 42 42 43 43 44 45 46 47 49 51 52 54
32 34 33 33 31 31 31 29 29 30 31 30 30 28 27 27 28 30 31 31 32 32 33 35 36 38 39 40 42 43 43 44 44 44 45 45 46 47 48 50 51 53 54 56
34 34 33 32 31 31 30 30 30 31 31 30 29 28 29 30 32 32 33 33 34 35 36 37 39 40 41 42 44 45 45 46 46 46 46 47 48 49 50 52 53 55 57 59
35 34 33 33 34 34 32 31 31 32 31 32 30 30 29 32 35 35 35 35 36 37 38 39 41 42 43 44 45 46 46 47 47 47 48 48 50 51 52 54 55 57 59 61
36 36 35 35 35 35 35 33 33 32 32 32 33 32 30 34 36 37 38 38 39 40 40 41 42 43 44 45 46 47 47 48 48 49 49 50 52 53 54 56 57 59 61 63
38 37 37 36 36 37 38 34 34 34 33 34 35 33 34 36 36 37 39 40 41 42 42 43 44 45 46 46 47 48 48 49 49 50 51 52 54 55 56 58 60 61 63 65
39 38 39 38 38 41 35 34 34 35 34 35 36 35 36 37 38 39 40 41 42 43 44 44 45 45 46 47 47 48 49 49 50 51 53 54 55 56 58 60 61 63 66 68
41 40 41 40 41 39 36 35 35 36 36 35 36 37 38 39 40 40 41 43 44 44 44 45 45 46 46 47 47 48 49 50 52 53 54 55 56 58 59 61 64 66 68 70
40 41 41 41 42 41 37 37 37 38 38 35 36 38 40 40 41 41 42 43 43 44 44 45 45 46 46 47 48 49 50 51 52 53 55 56 58 59 62 64 66 68 70 72
39 40 41 41 43 42 40 39 38 39 38 37 38 39 39 40 40 41 42 42 43 43 44 45 45 46 46 47 48 49 51 52 53 54 56 57 59 61 64 66 68 70 72 74
37 39 41 42 44 42 39 40 40 39 39 40 40 40 40 40 40 41 41 42 43 43 44 45 45 46 47 48 49 50 52 53 54 55 57 58 61 64 66 68 70 72 74 76
38 37 38 40 41 40 40 39 39 39 40 40 41 41 40 40 40 41 42 42 43 44 45 45 46 47 48 49 50 51 52 53 54 56 58 61 63 65 68 70 72 74 76 78
39 38 38 38 39 39 40 40 40 40 41 41 41 41 41 41 42 42 43 44 45 46 46 46 47 48 49 50 51 52 53 54 56 58 60 62 64 67 70 72 74 76 78 79
39 38 38 38 38 39 40 40 40 41 41 41 41 41 41 42 43 44 45 45 46 46 46 47 48 49 49 50 50 52 53 55 57 59 62 64 67 70 72 73 76 78 79 79
39 39 39 38 38 40 40 40 41 42 42 42 43 43 44 44 45 45 46 46 46 46 47 48 48 49 49 49 51 53 55 57 59 61 64 67 69 72 74 76 77 77 78 76

GEFSCGP_500_meanwind_102.txt.gz
Wind_Speed
40 41 40 38 40 40 40 38 35 35 36 35 33 31 31 30 28 27 26 25 25 25 24 24 23 23 23 23 23 23 23 23 24 25 26 27 28 29 29 30 31 32 32 33
41 39 36 39 41 41 40 38 37 36 37 36 34 32 31 30 29 28 26 25 26 26 25 24 24 24 24 24 24 24 24 24 25 26 27 28 28 29 30 31 32 32 33 33
39 36 37 40 41 40 39 38 36 36 38 38 36 33 31 30 29 28 26 26 26 26 25 25 24 24 24 25 25 25 25 26 26 27 28 29 29 30 31 32 33 33 34 34
39 37 39 40 39 39 38 37 37 37 38 37 37 34 28 30 28 28 27 26 26 26 26 25 25 25 25 26 26 26 26 27 28 28 29 30 31 32 33 33 34 35 35 35
37 35 37 38 37 38 37 37 38 38 39 38 36 36 27 28 27 28 27 26 26 26 26 26 26 26 26 27 27 27 28 28 29 30 31 31 32 33 34 35 36 36 37 37
36 36 37 36 37 38 38 37 38 39 40 39 32 36 30 26 27 28 27 26 26 27 26 27 27 26 27 27 28 28 29 30 30 31 32 33 34 35 36 36 37 38 38 39
35 36 36 36 36 37 37 37 38 39 39 37 33 36 31 26 27 28 27 26 26 26 26 26 26 26 27 28 29 29 30 31 32 32 33 34 35 36 37 38 39 39 40 40
36 36 36 35 34 35 35 37 38 38 39 37 35 35 30 26 26 27 27 26 26 25 26 26 27 27 27 28 29 30 31 32 33 34 35 36 37 38 39 40 40 41 41 42
36 35 34 34 33 36 37 37 36 38 39 38 37 35 30 26 26 26 26 26 25 25 25 26 26 27 28 29 30 31 32 33 34 35 36 37 39 40 41 42 42 43 43 44
35 36 35 35 35 37 37 35 36 38 38 37 36 33 29 26 26 26 26 26 26 25 25 26 27 28 29 30 31 32 33 35 36 37 38 39 40 41 42 43 44 45 45 46
35 36 35 35 35 34 35 35 36 37 38 37 36 31 28 26 25 25 25 25 25 25 25 26 28 29 30 31 32 33 35 36 37 38 40 41 42 43 44 45 46 46 47 48
34 35 35 35 35 36 36 36 36 37 37 36 35 32 27 27 26 26 26 26 26 26 26 27 29 30 31 32 33 34 36 37 39 40 42 43 44 45 46 47 47 48 49 49
35 36 35 35 36 36 36 34 34 35 36 36 34 30 26 27 28 29 28 27 27 27 28 29 30 31 33 34 35 36 37 39 41 42 44 45 46 47 48 48 49 50 50 51
35 36 35 33 31 31 33 33 34 35 36 35 32 29 27 28 30 31 30 30 30 29 29 30 31 33 34 36 37 38 39 41 42 44 45 46 48 48 49 50 50 51 52 53
36 35 34 33 33 33 33 33 34 36 35 34 31 30 28 29 32 33 32 31 31 31 31 32 33 34 36 37 39 40 41 43 44 46 47 48 49 50 50 51 52 53 54 54
37 36 35 34 34 35 35 34 34 34 34 33 32 30 27 31 33 33 33 33 33 33 34 34 35 36 37 38 40 41 43 44 46 47 48 49 50 51 52 53 53 54 54 55
38 37 36 35 34 36 37 34 34 34 33 33 34 30 30 33 34 34 34 35 35 35 37 37 38 39 40 40 41 43 44 45 47 48 49 50 51 52 52 53 54 54 55 56
39 38 37 37 36 40 34 32 33 34 33 33 33 32 32 34 35 36 35 36 37 38 40 41 41 41 42 42 43 44 46 46 48 49 49 51 51 52 53 53 54 55 56 57
39 39 39 39 38 37 35 32 31 33 33 33 34 33 34 35 36 36 36 38 39 40 41 42 42 43 43 44 45 46 47 48 49 49 50 51 52 52 53 54 55 56 57 58
40 40 40 40 40 38 33 32 33 35 35 32 34 35 36 37 37 36 38 39 40 41 41 42 43 44 44 45 45 46 47 48 48 49 50 51 52 53 54 54 55 56 57 59
41 41 41 40 39 38 35 33 33 36 33 32 35 36 36 37 38 38 39 40 40 41 41 42 42 43 43 44 45 46 46 47 48 49 50 51 52 53 54 55 56 57 59 60
39 40 40 39 40 37 33 34 34 34 34 35 35 36 37 38 38 38 39 40 40 40 41 41 42 42 43 44 45 46 47 48 49 50 51 51 52 53 54 55 57 58 61 62
39 39 38 38 37 34 34 34 35 35 35 35 36 36 37 37 38 38 39 39 39 40 40 41 41 42 43 45 46 47 48 48 49 49 50 51 52 53 55 56 58 60 63 65
36 37 38 38 37 36 35 35 35 36 36 36 36 36 36 36 37 37 38 38 39 40 40 41 42 43 44 45 46 46 47 48 49 49 50 51 53 54 55 57 60 62 65 68
36 36 37 37 36 36 36 35 36 36 37 37 37 37 37 37 37 37 38 39 39 40 41 43 44 44 44 45 46 47 48 48 49 50 51 52 53 54 56 59 62 65 68 72
38 37 37 36 35 37 36 37 38 38 37 37 37 37 37 37 37 38 38 39 41 41 42 43 44 44 45 46 46 47 48 48 49 50 51 52 54 56 59 61 64 67 71 74

GEFSCGP_500_meanwind_108.txt.gz
Wind_Speed
44 44 42 39 40 42 44 44 43 40 42 44 43 40 36 37 36 34 34 34 33 33 33 32 32 31 31 31 31 30 30 30 29 29 29 29 29 29 30 31 32 32 33 33
45 44 38 39 41 43 44 45 44 42 43 46 45 43 38 38 39 37 36 35 35 35 34 33 33 32 32 32 31 31 31 31 30 30 30 30 30 31 32 32 33 34 34 34
43 39 39 41 42 43 43 42 41 42 44 48 49 45 39 38 39 38 36 36 36 36 36 35 34 33 33 32 32 32 31 31 31 31 31 32 32 32 33 34 34 35 35 36
43 41 41 42 42 42 41 40 41 42 44 46 48 48 37 36 38 37 36 36 36 36 36 35 34 34 33 33 32 32 32 32 32 32 32 33 33 34 34 35 36 36 37 38
43 41 40 41 39 40 40 40 42 43 45 46 44 47 39 34 35 36 37 36 36 36 36 35 34 34 33 33 33 33 33 34 34 34 34 34 35 35 36 36 37 37 38 39
44 43 42 41 39 40 40 41 42 43 44 46 41 44 42 33 33 35 36 37 36 36 35 34 34 33 33 34 34 34 34 35 35 35 35 35 36 36 36 37 38 39 40 41
44 43 41 40 40 39 40 39 41 42 43 44 40 42 41 34 33 34 35 35 35 34 34 34 34 33 33 34 34 35 35 35 36 36 36 36 36 37 38 39 40 41 41 42
43 42 40 39 39 38 38 39 40 41 42 41 41 41 37 34 32 32 33 34 34 34 34 34 34 34 34 34 35 35 36 36 36 37 37 37 37 38 39 40 41 42 43 43
41 40 39 38 38 38 39 40 39 42 43 43 42 39 34 31 30 31 32 33 33 34 34 34 34 34 34 34 34 35 35 36 36 37 37 38 38 39 41 42 43 43 43 44
42 41 39 39 40 41 41 40 41 43 44 44 41 37 32 28 29 31 31 32 33 33 34 34 33 33 34 34 34 35 35 36 36 37 38 39 40 41 42 43 44 44 45 46
42 42 41 41 42 40 41 41 42 43 44 43 41 36 31 28 28 28 30 31 32 33 33 33 33 33 33 33 33 34 35 36 36 38 39 40 41 42 43 44 45 46 47 48
41 42 43 41 41 41 42 42 42 42 42 41 41 37 31 29 29 29 29 31 31 32 32 32 33 32 32 32 33 34 35 36 38 39 40 41 42 43 44 45 46 47 48 49
42 44 43 43 42 41 41 40 40 41 42 42 40 36 30 29 28 29 30 31 32 32 32 33 32 32 33 34 34 35 36 37 38 40 41 42 43 44 45 46 47 48 49 49
44 45 43 41 37 36 37 37 38 40 42 41 38 34 30 29 29 30 31 32 32 33 33 33 33 34 34 34 35 36 37 38 39 41 42 42 44 45 46 47 48 48 49 50
45 44 41 39 38 38 37 37 38 40 40 40 37 35 30 29 31 32 33 34 34 33 34 34 34 34 35 36 36 37 38 39 40 41 42 44 45 46 47 48 48 49 50 51
45 43 41 40 39 39 39 39 39 40 39 39 37 34 29 31 33 34 35 35 35 34 34 34 35 35 36 36 37 38 39 40 41 42 44 45 46 47 48 49 49 50 52 53
45 43 42 41 39 40 41 37 38 38 37 37 37 33 31 32 33 34 35 36 35 35 35 35 35 35 36 37 38 39 40 41 42 44 45 46 47 48 49 49 50 52 53 53
45 44 43 42 42 44 38 35 35 36 35 35 35 33 32 31 32 34 35 36 36 36 36 36 36 37 38 39 40 41 41 42 43 44 45 46 47 48 49 50 51 52 52 53
47 46 45 44 44 42 39 35 33 34 33 32 33 32 32 33 34 33 34 35 36 36 36 37 38 39 39 40 40 42 43 43 44 45 45 46 47 48 49 50 51 52 53 54
48 47 46 45 45 43 38 35 34 34 33 30 31 32 33 35 35 32 34 35 36 36 37 38 39 40 40 41 42 43 43 43 44 45 46 47 48 48 49 50 52 53 53 54
49 48 47 45 44 42 38 35 34 35 31 30 31 32 34 35 35 34 34 35 36 37 38 39 40 40 41 42 42 42 43 43 44 45 46 46 47 49 50 51 52 53 54 55
48 48 46 45 45 40 36 35 33 31 31 32 33 33 33 34 35 35 35 36 36 38 39 39 40 41 41 41 42 42 42 43 44 45 45 46 48 49 50 51 52 53 55 56
48 48 46 44 41 38 36 35 34 33 33 34 34 34 34 35 36 36 36 37 37 38 39 39 40 40 40 41 41 41 42 43 44 45 46 47 48 49 50 51 53 54 56 57
46 46 46 46 43 40 38 37 36 35 34 34 34 35 35 36 36 36 37 37 38 38 38 39 39 39 40 40 41 42 42 43 44 45 46 47 48 49 51 52 54 55 56 57
45 44 45 45 42 41 39 37 36 36 36 35 35 35 36 36 36 36 36 37 37 38 38 39 39 39 40 41 42 42 43 44 45 45 46 47 49 50 52 53 54 55 57 59
45 43 43 42 39 39 38 37 37 38 37 37 36 36 36 35 35 35 36 36 37 37 38 38 39 39 40 41 42 43 44 44 45 45 46 48 50 51 53 53 55 56 59 61

GEFSCGP_500_meanwind_114.txt.gz
Wind_Speed
47 48 47 44 43 43 44 45 44 44 45 47 46 43 40 41 41 39 38 37 36 36 36 35 34 34 34 33 33 33 33 33 32 32 32 32 32 32 32 32 32 32 32 32
48 49 44 42 43 44 45 45 44 44 45 48 49 47 44 43 42 42 40 39 39 39 38 37 36 36 35 35 34 34 34 34 33 33 33 33 33 32 32 32 32 32 33 33
48 45 43 45 45 45 45 44 43 43 45 48 51 49 45 43 43 43 42 42 42 41 40 39 38 37 36 36 35 35 35 34 34 34 34 34 33 33 33 33 33 33 33 34
50 47 46 46 46 45 45 42 43 44 46 47 50 51 44 41 40 41 42 43 42 41 40 39 39 38 37 37 36 36 35 34 34 34 34 34 34 34 34 34 34 34 34 35
50 48 47 46 44 43 43 43 44 45 47 49 48 52 46 39 37 39 41 42 42 41 40 39 38 38 37 37 36 35 35 35 34 34 34 34 34 34 34 34 34 35 35 35
50 49 48 46 45 44 44 44 45 46 48 50 47 49 48 39 36 37 39 41 41 41 40 40 38 37 36 36 35 35 34 34 34 34 34 34 34 35 35 35 36 36 36 36
51 50 48 47 46 45 45 44 44 46 47 49 46 46 47 41 37 36 37 39 39 39 39 38 38 37 37 36 35 35 35 35 35 35 35 34 35 35 36 36 36 36 37 37
50 50 47 46 45 44 43 43 44 45 46 46 46 45 42 40 36 34 35 37 38 38 37 37 37 37 36 36 36 35 34 35 34 34 34 34 35 35 35 36 36 37 38 38
48 48 46 45 44 44 45 45 43 45 46 47 48 44 39 35 33 33 34 35 36 36 35 35 36 36 35 35 35 34 34 35 34 34 35 35 35 35 36 36 37 37 38 38
47 47 46 45 45 46 46 45 45 46 47 47 46 42 36 32 32 33 33 33 33 34 34 34 34 34 35 35 35 35 35 35 35 35 35 35 35 35 35 36 37 37 38 39
47 48 48 48 48 46 46 46 46 47 48 47 45 41 34 31 31 31 31 31 31 32 33 33 33 33 33 34 34 34 34 34 34 34 35 35 34 35 36 36 38 38 39 40
47 48 50 48 47 46 47 46 45 47 46 45 44 42 35 31 31 31 31 31 31 32 32 33 33 33 33 33 33 33 34 34 33 34 34 34 34 35 36 37 38 39 40 41
46 49 50 50 49 48 48 47 46 45 45 46 44 40 35 32 31 31 30 31 31 32 32 33 33 33 33 32 32 33 33 33 33 33 33 34 34 36 37 38 39 40 41 42
47 49 50 49 47 46 45 44 44 45 46 44 41 37 35 32 31 31 31 32 32 33 33 32 32 32 32 32 32 32 33 33 33 33 34 34 35 36 37 39 40 41 42 44
48 49 49 48 48 47 46 44 44 45 44 43 39 38 34 33 33 33 33 32 32 32 33 32 32 32 33 33 33 33 33 34 33 34 34 35 36 37 38 39 41 42 43 45
48 48 48 49 48 48 47 46 44 43 42 41 40 36 32 33 34 34 33 32 31 31 32 33 33 34 34 33 33 33 33 33 34 35 35 36 37 38 39 41 42 43 44 45
48 48 48 48 47 48 49 45 43 42 40 39 38 32 32 33 33 33 33 32 31 31 32 32 33 33 33 33 33 33 34 34 35 35 36 37 38 39 41 42 43 44 45 46
48 48 49 48 48 50 45 41 41 41 39 38 37 34 33 32 32 33 33 32 32 31 32 32 32 33 32 33 33 34 35 35 36 36 37 38 39 41 43 43 44 45 45 46
48 48 49 49 50 49 45 41 38 38 38 36 35 33 32 33 33 32 31 31 31 31 31 31 32 32 32 33 34 35 36 36 37 38 38 39 41 43 43 44 44 45 45 46
49 49 49 48 49 49 43 39 37 37 37 34 33 32 32 33 33 29 30 31 31 31 32 32 32 31 32 33 34 35 36 37 37 38 40 41 42 43 43 43 44 44 45 46
50 49 49 48 47 46 44 40 38 37 33 31 32 32 32 32 30 29 30 31 31 31 31 31 32 32 33 34 34 35 35 36 37 39 40 41 42 43 43 43 43 45 46 47
49 48 48 48 49 46 43 41 38 34 33 31 30 31 31 31 31 30 30 30 30 30 31 31 31 32 32 33 34 34 35 36 38 39 40 41 41 42 42 43 44 45 46 47
49 47 47 47 45 42 40 38 36 35 33 32 31 31 31 31 31 31 30 30 30 29 30 30 31 31 32 33 33 34 35 36 37 38 39 40 41 41 42 43 44 45 46 47
48 46 46 45 44 42 40 38 37 35 33 32 31 30 30 31 30 30 30 30 30 30 30 30 31 32 32 33 33 34 35 36 37 37 38 39 40 41 42 43 44 45 47 49
47 45 44 43 41 40 40 38 36 35 34 32 31 30 30 30 30 30 30 30 30 30 30 31 31 32 33 33 34 35 35 36 36 37 38 39 40 41 42 43 45 47 48 50
47 45 43 41 39 39 38 37 37 36 34 33 32 31 30 30 30 30 30 30 30 31 31 31 32 32 33 33 34 34 35 36 37 38 39 39 40 41 43 44 46 47 49 51

GEFSCGP_500_meanwind_120.txt.gz
Wind_Speed
51 53 52 49 48 47 46 47 47 47 48 50 50 48 46 46 46 44 42 41 40 38 38 38 38 37 36 36 36 35 35 35 36 36 36 36 36 36 35 35 35 34 34 33
54 54 49 48 48 48 48 48 47 47 48 50 50 50 48 47 47 46 44 43 42 41 41 41 40 39 38 38 38 38 38 38 38 38 38 38 38 37 36 36 35 35 34 34
54 49 47 49 49 49 48 48 47 46 47 50 52 52 50 49 48 47 46 45 44 43 43 43 42 41 41 40 41 41 41 40 40 40 40 39 38 38 37 36 36 35 35 35
53 50 50 50 50 49 49 46 46 46 48 49 51 55 51 50 48 48 47 45 45 45 45 44 44 43 42 42 43 43 42 42 41 41 40 39 39 38 37 37 36 35 35 35
53 50 51 51 49 48 47 45 46 46 48 50 50 55 53 50 48 47 46 45 45 45 45 44 44 43 42 42 43 43 43 42 41 41 40 40 39 38 38 37 36 36 35 35
52 50 50 49 47 47 46 46 47 48 50 54 50 52 55 48 46 43 43 43 44 45 44 44 44 43 43 42 42 43 42 42 41 41 40 40 39 39 38 37 36 36 36 36
54 53 51 50 49 49 49 48 48 50 52 54 49 51 54 48 44 42 42 43 43 44 44 44 44 43 43 42 42 42 42 42 41 41 40 40 39 39 38 37 37 37 36 36
55 55 52 51 50 49 49 50 50 51 51 50 48 51 49 47 44 42 41 42 42 43 44 43 43 43 42 42 42 42 42 41 41 41 40 40 39 39 38 37 37 37 37 37
54 54 51 51 49 49 50 50 47 48 49 50 51 50 47 44 42 40 39 39 40 41 42 42 42 42 41 41 41 40 40 40 40 40 40 39 39 39 38 38 38 37 37 37
51 52 53 51 51 51 50 48 48 49 50 51 51 49 47 43 41 39 37 37 38 39 40 40 41 41 41 40 40 40 39 39 38 39 39 39 39 38 38 38 37 37 37 37
50 51 52 52 53 51 51 52 51 51 51 50 50 48 44 42 40 38 36 36 36 36 37 38 38 38 39 39 39 39 38 38 38 38 38 38 38 38 38 38 37 37 37 37
50 51 52 51 49 48 48 49 50 51 51 50 49 47 42 42 40 37 35 34 34 34 35 35 36 36 37 37 37 37 37 37 37 37 37 37 37 37 37 37 37 37 37 37
50 52 52 52 52 50 50 50 49 49 49 50 50 46 41 42 41 39 36 35 34 34 34 34 34 35 35 35 36 36 36 36 36 36 37 37 37 37 37 37 37 37 38 39
50 53 54 54 52 50 51 51 50 50 51 50 48 44 41 40 39 38 36 35 35 34 34 34 34 34 34 34 35 35 34 35 35 35 36 36 36 36 37 37 38 38 38 39
51 52 52 52 52 51 50 49 50 51 49 48 44 43 40 40 40 40 38 36 35 35 34 33 33 33 33 34 34 34 34 34 34 35 35 35 36 36 37 37 37 38 38 39
52 53 52 51 51 53 53 50 48 48 48 47 45 43 39 40 41 41 39 36 34 34 34 33 33 33 32 33 33 33 33 33 34 34 34 35 36 36 36 37 37 38 38 39
54 53 53 54 52 53 55 50 48 47 46 46 45 39 38 40 41 40 39 37 35 34 34 33 33 32 32 32 32 32 32 33 33 33 34 34 35 35 36 36 37 38 39 40
54 54 53 54 54 56 53 48 47 47 45 43 42 40 40 39 39 39 39 38 36 34 33 33 33 33 32 32 32 32 33 33 33 33 34 34 34 35 36 36 37 38 39 40
54 54 54 54 55 55 51 48 46 45 44 41 41 40 40 39 40 39 37 37 36 35 33 33 33 33 32 32 33 33 33 33 33 33 33 34 34 35 36 36 38 39 40 41
52 52 53 53 53 53 49 45 44 44 44 39 39 39 39 40 41 35 34 35 34 34 33 33 32 32 32 32 33 33 33 33 33 33 34 34 35 36 37 38 39 39 41 42
49 50 51 52 52 50 45 45 44 44 40 36 38 38 40 40 38 35 35 34 33 33 33 33 32 31 31 32 32 32 32 33 33 33 34 34 35 36 37 38 39 40 41 42
46 47 49 51 52 48 42 44 44 41 38 37 37 37 38 38 37 37 36 34 33 33 32 32 31 31 31 31 32 32 32 32 33 34 34 35 35 37 38 39 39 40 41 42
45 44 45 46 45 43 43 44 42 40 39 38 37 36 36 36 36 36 35 34 33 32 31 31 30 30 31 31 31 32 32 33 33 34 34 35 36 37 38 38 39 40 41 43
45 44 44 45 44 43 42 43 40 39 38 37 36 35 35 34 34 34 34 33 32 31 30 30 30 30 31 31 32 32 32 33 33 34 35 35 36 37 37 38 40 41 42 43
44 44 44 44 42 43 43 41 39 38 38 36 35 33 33 34 34 33 32 32 32 32 31 31 31 31 31 32 32 32 33 33 34 35 35 36 36 37 38 39 40 41 42 44
44 43 43 43 41 42 42 41 40 40 39 37 35 34 33 33 34 34 33 32 32 32 31 31 31 31 31 32 32 33 33 34 34 35 36 36 37 38 39 40 41 42 43 44

GEFSCGP_500_meanwind_126.txt.gz
Wind_Speed
58 60 59 54 52 51 52 52 52 49 48 51 53 52 49 49 49 46 44 42 40 38 37 37 35 34 33 32 31 30 30 30 30 30 30 30 31 32 32 33 33 34 35 35
60 61 54 51 52 52 52 53 52 51 50 53 54 53 52 51 51 48 47 45 43 41 40 39 38 37 36 35 34 33 33 32 32 32 33 33 33 33 34 34 35 36 36 36
59 54 51 53 54 54 54 53 51 50 50 52 54 55 53 52 52 50 48 47 45 44 42 42 41 40 39 38 37 36 36 35 35 35 35 35 35 35 35 35 36 36 36 36
58 55 54 54 55 54 54 49 49 50 51 52 54 57 54 52 52 51 49 48 46 45 44 44 43 42 41 40 39 39 38 38 37 37 37 37 36 36 36 37 38 38 37 37
59 57 57 56 53 52 51 47 48 49 51 53 54 58 57 52 52 50 49 48 47 46 45 45 44 44 43 42 41 40 40 39 38 38 38 38 38 38 39 39 39 38 38 38
58 56 56 55 52 51 49 48 49 50 52 56 54 57 60 53 50 47 46 46 46 46 46 46 45 45 44 43 43 42 41 40 39 39 39 39 39 38 39 39 39 39 39 39
58 59 57 56 55 53 53 52 52 53 55 57 52 56 60 52 47 45 44 44 45 45 45 45 45 44 43 43 42 42 42 41 41 40 40 39 39 40 39 39 39 39 39 38
59 60 59 58 57 56 55 55 56 55 55 54 53 55 55 49 45 44 43 43 43 43 43 43 43 43 43 43 42 42 41 41 41 40 40 40 40 40 40 40 39 39 39 39
57 57 56 57 56 56 56 55 52 53 54 54 54 52 49 47 44 42 41 41 42 42 42 42 42 42 42 42 42 42 41 41 41 40 40 40 40 40 40 40 40 40 40 40
53 55 56 55 56 57 56 53 53 54 54 54 53 51 47 43 40 39 38 38 39 40 41 41 41 41 41 41 41 41 41 41 41 40 40 40 40 40 40 40 39 39 40 40
54 54 54 56 58 57 56 56 55 54 54 53 52 49 42 39 38 37 36 36 36 37 37 38 39 40 40 40 40 40 40 40 40 40 40 40 39 39 40 39 39 40 40 40
54 54 55 55 54 54 55 56 56 55 54 53 51 47 41 39 38 36 35 35 35 35 35 36 37 37 38 39 39 39 39 39 39 39 39 39 39 39 39 39 39 39 39 39
54 55 54 55 57 55 56 55 54 54 53 52 50 45 40 40 38 37 36 34 33 34 34 35 35 35 36 37 38 38 38 38 38 38 38 38 38 38 38 39 39 38 39 39
54 56 57 55 55 56 56 56 55 55 55 53 49 43 41 40 39 38 37 35 34 33 33 33 33 34 35 35 36 36 37 37 37 37 37 37 37 38 38 38 38 38 39 39
54 54 56 55 54 55 55 55 55 55 53 52 46 44 40 39 38 38 37 36 36 34 33 33 33 34 34 34 34 35 35 36 36 36 36 36 37 37 38 37 38 38 38 38
52 55 55 55 55 56 56 55 53 52 51 49 47 45 40 39 39 39 39 38 37 35 34 33 33 33 34 34 34 34 34 34 35 35 35 36 36 37 37 37 37 37 37 37
48 53 55 56 56 57 57 54 53 51 49 48 47 41 40 41 41 40 39 40 39 37 36 35 34 33 33 33 34 34 34 34 34 34 35 35 36 36 36 36 36 36 36 36
47 49 53 56 56 58 53 50 51 51 49 47 45 42 42 41 40 40 40 40 39 38 37 36 35 34 33 33 33 34 34 34 34 34 35 35 35 35 35 35 35 35 36 36
44 46 49 53 55 55 52 49 47 49 49 46 44 43 42 41 42 42 41 40 39 37 36 36 36 35 34 33 33 34 34 34 34 34 34 34 34 34 34 34 35 35 35 35
40 43 47 50 51 53 50 47 44 46 48 45 45 44 44 44 44 40 38 39 38 38 37 36 36 35 34 33 33 34 34 34 33 33 33 33 34 34 34 34 34 34 35 36
38 38 42 46 47 48 48 49 47 47 42 40 42 44 44 45 42 39 39 39 39 38 38 37 35 35 34 34 34 34 33 33 33 33 33 33 33 34 34 34 34 35 35 36
36 37 38 41 43 43 45 47 46 42 41 39 39 41 43 43 42 41 40 40 39 38 38 37 36 35 34 34 34 34 34 33 33 33 33 33 34 34 34 34 34 35 36 36
37 36 35 38 41 40 42 43 42 42 42 41 39 39 40 40 40 39 39 39 38 38 37 37 35 34 34 33 33 34 34 34 34 34 34 34 34 34 34 34 35 36 36 37
37 36 37 39 41 40 39 39 39 40 41 41 40 40 39 38 37 37 37 36 36 37 37 36 35 35 33 33 33 33 33 34 34 34 34 35 35 35 35 35 36 36 36 37
38 38 37 39 41 41 39 38 37 38 40 41 40 39 39 39 37 36 35 36 36 36 35 35 35 35 34 32 32 32 33 33 34 34 34 34 34 34 35 35 35 36 36 37
38 38 37 39 40 41 40 40 40 39 39 41 40 39 39 38 38 37 36 36 36 35 34 34 34 33 33 33 32 32 33 33 33 33 33 33 33 34 34 35 35 36 37 38